<?xml version="1.0" encoding="UTF-8" standalone="no" ?>
<gpx xmlns="http://www.topografix.com/GPX/1/1" xmlns:xsi="http://www.w3.org/2001/XMLSchema-instance" xsi:schemaLocation="http://www.topografix.com/GPX/1/1 http://www.topografix.com/GPX/1/1/gpx.xsd" version="1.1" creator="VisuGPX - https://www.visugpx.com">
  <metadata>
    <name>2021 Raid en Provence</name>
  </metadata>
  <trk>
    <name><![CDATA[J2 Méouge -> Jabron]]></name>
    <extensions>
      <line xmlns="http://www.topografix.com/GPX/gpx_style/0/2">
        <color>0000FF</color>
        <width>4</width>
      </line>
    </extensions>
    <trkseg>
      <trkpt lat="44.26255" lon="5.73378">
        <ele>651.7</ele>
        <time>2021-05-28T06:30:18.000Z</time>
      </trkpt>
      <trkpt lat="44.26243" lon="5.73392">
        <ele>650.5</ele>
        <time>2021-05-28T06:30:19.633Z</time>
      </trkpt>
      <trkpt lat="44.26209" lon="5.73426">
        <ele>648.2</ele>
        <time>2021-05-28T06:30:24.023Z</time>
      </trkpt>
      <trkpt lat="44.26195" lon="5.7345">
        <ele>648.3</ele>
        <time>2021-05-28T06:30:29.705Z</time>
      </trkpt>
      <trkpt lat="44.26168" lon="5.73504">
        <ele>649.9</ele>
        <time>2021-05-28T06:30:46.521Z</time>
      </trkpt>
      <trkpt lat="44.26156" lon="5.73561">
        <ele>647.5</ele>
        <time>2021-05-28T06:30:50.936Z</time>
      </trkpt>
      <trkpt lat="44.26151" lon="5.73591">
        <ele>646.3</ele>
        <time>2021-05-28T06:30:53.263Z</time>
      </trkpt>
      <trkpt lat="44.26139" lon="5.73647">
        <ele>642.9</ele>
        <time>2021-05-28T06:30:57.635Z</time>
      </trkpt>
      <trkpt lat="44.26125" lon="5.73669">
        <ele>641.5</ele>
        <time>2021-05-28T06:30:59.656Z</time>
      </trkpt>
      <trkpt lat="44.26107" lon="5.73678">
        <ele>640.7</ele>
        <time>2021-05-28T06:31:01.909Z</time>
      </trkpt>
      <trkpt lat="44.26068" lon="5.73746">
        <ele>638.1</ele>
        <time>2021-05-28T06:31:09.274Z</time>
      </trkpt>
      <trkpt lat="44.26017" lon="5.73793">
        <ele>635.8</ele>
        <time>2021-05-28T06:31:16.770Z</time>
      </trkpt>
      <trkpt lat="44.25998" lon="5.73794">
        <ele>635</ele>
        <time>2021-05-28T06:31:19.006Z</time>
      </trkpt>
      <trkpt lat="44.25979" lon="5.73776">
        <ele>634.5</ele>
        <time>2021-05-28T06:31:22.336Z</time>
      </trkpt>
      <trkpt lat="44.25966" lon="5.73751">
        <ele>634</ele>
        <time>2021-05-28T06:31:25.515Z</time>
      </trkpt>
      <trkpt lat="44.25907" lon="5.73624">
        <ele>635.1</ele>
        <time>2021-05-28T06:31:54.888Z</time>
      </trkpt>
      <trkpt lat="44.25879" lon="5.73588">
        <ele>637.8</ele>
        <time>2021-05-28T06:32:13.844Z</time>
      </trkpt>
      <trkpt lat="44.25856" lon="5.73592">
        <ele>640.6</ele>
        <time>2021-05-28T06:32:32.422Z</time>
      </trkpt>
      <trkpt lat="44.25837" lon="5.73584">
        <ele>641.7</ele>
        <time>2021-05-28T06:32:41.265Z</time>
      </trkpt>
      <trkpt lat="44.25812" lon="5.73588">
        <ele>646.1</ele>
        <time>2021-05-28T06:33:05.117Z</time>
      </trkpt>
      <trkpt lat="44.25776" lon="5.73601">
        <ele>653.6</ele>
        <time>2021-05-28T06:33:40.363Z</time>
      </trkpt>
      <trkpt lat="44.25745" lon="5.73621">
        <ele>661</ele>
        <time>2021-05-28T06:34:12.733Z</time>
      </trkpt>
      <trkpt lat="44.25749" lon="5.73577">
        <ele>656.9</ele>
        <time>2021-05-28T06:34:16.051Z</time>
      </trkpt>
      <trkpt lat="44.25777" lon="5.73558">
        <ele>652.7</ele>
        <time>2021-05-28T06:34:19.302Z</time>
      </trkpt>
      <trkpt lat="44.25795" lon="5.73522">
        <ele>649.6</ele>
        <time>2021-05-28T06:34:22.587Z</time>
      </trkpt>
      <trkpt lat="44.25785" lon="5.73487">
        <ele>652.9</ele>
        <time>2021-05-28T06:34:44.616Z</time>
      </trkpt>
      <trkpt lat="44.25772" lon="5.73506">
        <ele>656.8</ele>
        <time>2021-05-28T06:35:02.454Z</time>
      </trkpt>
      <trkpt lat="44.25738" lon="5.73496">
        <ele>666.6</ele>
        <time>2021-05-28T06:35:35.390Z</time>
      </trkpt>
      <trkpt lat="44.25709" lon="5.73443">
        <ele>671.6</ele>
        <time>2021-05-28T06:36:07.373Z</time>
      </trkpt>
      <trkpt lat="44.25688" lon="5.73394">
        <ele>673.2</ele>
        <time>2021-05-28T06:36:23.036Z</time>
      </trkpt>
      <trkpt lat="44.25661" lon="5.73379">
        <ele>677.4</ele>
        <time>2021-05-28T06:36:50.581Z</time>
      </trkpt>
      <trkpt lat="44.25634" lon="5.73396">
        <ele>683.5</ele>
        <time>2021-05-28T06:37:18.655Z</time>
      </trkpt>
      <trkpt lat="44.25628" lon="5.73455">
        <ele>687.6</ele>
        <time>2021-05-28T06:37:44.923Z</time>
      </trkpt>
      <trkpt lat="44.25588" lon="5.73575">
        <ele>697.7</ele>
        <time>2021-05-28T06:38:49.630Z</time>
      </trkpt>
      <trkpt lat="44.25437" lon="5.73723">
        <ele>712.3</ele>
        <time>2021-05-28T06:40:27.612Z</time>
      </trkpt>
      <trkpt lat="44.25431" lon="5.73645">
        <ele>719.9</ele>
        <time>2021-05-28T06:41:20.873Z</time>
      </trkpt>
      <trkpt lat="44.25409" lon="5.73551">
        <ele>728.5</ele>
        <time>2021-05-28T06:42:18.076Z</time>
      </trkpt>
      <trkpt lat="44.25363" lon="5.7347">
        <ele>743.2</ele>
        <time>2021-05-28T06:43:28.257Z</time>
      </trkpt>
      <trkpt lat="44.25318" lon="5.73387">
        <ele>756</ele>
        <time>2021-05-28T06:44:38.932Z</time>
      </trkpt>
      <trkpt lat="44.25314" lon="5.73264">
        <ele>757.9</ele>
        <time>2021-05-28T06:45:05.933Z</time>
      </trkpt>
      <trkpt lat="44.25256" lon="5.73193">
        <ele>764.3</ele>
        <time>2021-05-28T06:45:48.212Z</time>
      </trkpt>
      <trkpt lat="44.25214" lon="5.7314">
        <ele>770.8</ele>
        <time>2021-05-28T06:46:30.495Z</time>
      </trkpt>
      <trkpt lat="44.25172" lon="5.73092">
        <ele>775.2</ele>
        <time>2021-05-28T06:46:59.779Z</time>
      </trkpt>
      <trkpt lat="44.25134" lon="5.73072">
        <ele>776.4</ele>
        <time>2021-05-28T06:47:13.463Z</time>
      </trkpt>
      <trkpt lat="44.25103" lon="5.73128">
        <ele>786.4</ele>
        <time>2021-05-28T06:48:01.516Z</time>
      </trkpt>
      <trkpt lat="44.25061" lon="5.73154">
        <ele>793.7</ele>
        <time>2021-05-28T06:48:45.065Z</time>
      </trkpt>
      <trkpt lat="44.25054" lon="5.73099">
        <ele>787</ele>
        <time>2021-05-28T06:48:49.244Z</time>
      </trkpt>
      <trkpt lat="44.25036" lon="5.73113">
        <ele>790.7</ele>
        <time>2021-05-28T06:49:08.775Z</time>
      </trkpt>
      <trkpt lat="44.25035" lon="5.73172">
        <ele>798.9</ele>
        <time>2021-05-28T06:49:48.845Z</time>
      </trkpt>
      <trkpt lat="44.2501" lon="5.73226">
        <ele>807.7</ele>
        <time>2021-05-28T06:50:32.501Z</time>
      </trkpt>
      <trkpt lat="44.24986" lon="5.73361">
        <ele>819.3</ele>
        <time>2021-05-28T06:51:48.307Z</time>
      </trkpt>
      <trkpt lat="44.24904" lon="5.734">
        <ele>828.6</ele>
        <time>2021-05-28T06:52:47.943Z</time>
      </trkpt>
      <trkpt lat="44.24913" lon="5.73484">
        <ele>839.1</ele>
        <time>2021-05-28T06:53:45.612Z</time>
      </trkpt>
      <trkpt lat="44.24889" lon="5.73603">
        <ele>851.9</ele>
        <time>2021-05-28T06:55:09.552Z</time>
      </trkpt>
      <trkpt lat="44.24878" lon="5.73707">
        <ele>860.2</ele>
        <time>2021-05-28T06:56:02.999Z</time>
      </trkpt>
      <trkpt lat="44.24885" lon="5.73767">
        <ele>863.7</ele>
        <time>2021-05-28T06:56:26.360Z</time>
      </trkpt>
      <trkpt lat="44.24891" lon="5.73826">
        <ele>868.9</ele>
        <time>2021-05-28T06:57:01.005Z</time>
      </trkpt>
      <trkpt lat="44.24854" lon="5.73814">
        <ele>874.1</ele>
        <time>2021-05-28T06:57:37.011Z</time>
      </trkpt>
      <trkpt lat="44.24802" lon="5.7379">
        <ele>878.5</ele>
        <time>2021-05-28T06:58:06.384Z</time>
      </trkpt>
      <trkpt lat="44.24752" lon="5.7383">
        <ele>890.3</ele>
        <time>2021-05-28T06:59:01.009Z</time>
      </trkpt>
      <trkpt lat="44.24704" lon="5.73855">
        <ele>896.2</ele>
        <time>2021-05-28T06:59:39.425Z</time>
      </trkpt>
      <trkpt lat="44.24634" lon="5.73853">
        <ele>897.9</ele>
        <time>2021-05-28T07:00:01.552Z</time>
      </trkpt>
      <trkpt lat="44.24565" lon="5.73917">
        <ele>909.2</ele>
        <time>2021-05-28T07:01:20.077Z</time>
      </trkpt>
      <trkpt lat="44.24511" lon="5.74004">
        <ele>921.9</ele>
        <time>2021-05-28T07:02:38.243Z</time>
      </trkpt>
      <trkpt lat="44.24471" lon="5.7402">
        <ele>923.1</ele>
        <time>2021-05-28T07:02:52.139Z</time>
      </trkpt>
      <trkpt lat="44.24412" lon="5.74077">
        <ele>928.8</ele>
        <time>2021-05-28T07:03:30.340Z</time>
      </trkpt>
      <trkpt lat="44.24368" lon="5.74115">
        <ele>930.2</ele>
        <time>2021-05-28T07:03:47.245Z</time>
      </trkpt>
      <trkpt lat="44.24343" lon="5.74176">
        <ele>939.7</ele>
        <time>2021-05-28T07:04:34.966Z</time>
      </trkpt>
      <trkpt lat="44.24281" lon="5.74297">
        <ele>957.8</ele>
        <time>2021-05-28T07:06:15.985Z</time>
      </trkpt>
      <trkpt lat="44.24223" lon="5.74387">
        <ele>972</ele>
        <time>2021-05-28T07:07:38.189Z</time>
      </trkpt>
      <trkpt lat="44.24195" lon="5.7438">
        <ele>972.8</ele>
        <time>2021-05-28T07:07:47.605Z</time>
      </trkpt>
      <trkpt lat="44.24156" lon="5.74387">
        <ele>978.4</ele>
        <time>2021-05-28T07:08:24.877Z</time>
      </trkpt>
      <trkpt lat="44.24121" lon="5.74367">
        <ele>982</ele>
        <time>2021-05-28T07:08:47.964Z</time>
      </trkpt>
      <trkpt lat="44.24065" lon="5.74397">
        <ele>997.8</ele>
        <time>2021-05-28T07:09:44.821Z</time>
      </trkpt>
      <trkpt lat="44.24017" lon="5.74374">
        <ele>1001.5</ele>
        <time>2021-05-28T07:10:10.479Z</time>
      </trkpt>
      <trkpt lat="44.23979" lon="5.74308">
        <ele>999.3</ele>
        <time>2021-05-28T07:10:18.021Z</time>
      </trkpt>
      <trkpt lat="44.24006" lon="5.74262">
        <ele>996.5</ele>
        <time>2021-05-28T07:10:22.127Z</time>
      </trkpt>
      <trkpt lat="44.23994" lon="5.74192">
        <ele>997.7</ele>
        <time>2021-05-28T07:10:38.232Z</time>
      </trkpt>
      <trkpt lat="44.23938" lon="5.74219">
        <ele>1008.9</ele>
        <time>2021-05-28T07:11:34.391Z</time>
      </trkpt>
      <trkpt lat="44.23813" lon="5.74192">
        <ele>1033.7</ele>
        <time>2021-05-28T07:13:34.286Z</time>
      </trkpt>
      <trkpt lat="44.23825" lon="5.74074">
        <ele>1038.5</ele>
        <time>2021-05-28T07:14:12.535Z</time>
      </trkpt>
      <trkpt lat="44.23784" lon="5.73983">
        <ele>1052.1</ele>
        <time>2021-05-28T07:15:25.538Z</time>
      </trkpt>
      <trkpt lat="44.23767" lon="5.74082">
        <ele>1052</ele>
        <time>2021-05-28T07:15:43.094Z</time>
      </trkpt>
      <trkpt lat="44.23682" lon="5.74126">
        <ele>1070.3</ele>
        <time>2021-05-28T07:17:09.026Z</time>
      </trkpt>
      <trkpt lat="44.23642" lon="5.74199">
        <ele>1078.1</ele>
        <time>2021-05-28T07:18:00.335Z</time>
      </trkpt>
      <trkpt lat="44.23614" lon="5.7438">
        <ele>1085.4</ele>
        <time>2021-05-28T07:18:59.284Z</time>
      </trkpt>
      <trkpt lat="44.23547" lon="5.74558">
        <ele>1106.5</ele>
        <time>2021-05-28T07:21:15.837Z</time>
      </trkpt>
      <trkpt lat="44.23441" lon="5.74654">
        <ele>1138.2</ele>
        <time>2021-05-28T07:23:15.612Z</time>
      </trkpt>
      <trkpt lat="44.23364" lon="5.74761">
        <ele>1166.4</ele>
        <time>2021-05-28T07:24:58.607Z</time>
      </trkpt>
      <trkpt lat="44.23332" lon="5.74936">
        <ele>1192.6</ele>
        <time>2021-05-28T07:27:01.270Z</time>
      </trkpt>
      <trkpt lat="44.23288" lon="5.74907">
        <ele>1191.6</ele>
        <time>2021-05-28T07:27:08.427Z</time>
      </trkpt>
      <trkpt lat="44.23221" lon="5.74907">
        <ele>1201.8</ele>
        <time>2021-05-28T07:28:11.936Z</time>
      </trkpt>
      <trkpt lat="44.23175" lon="5.74889">
        <ele>1211.2</ele>
        <time>2021-05-28T07:28:57.220Z</time>
      </trkpt>
      <trkpt lat="44.23129" lon="5.74901">
        <ele>1218.7</ele>
        <time>2021-05-28T07:29:41.577Z</time>
      </trkpt>
      <trkpt lat="44.23145" lon="5.74944">
        <ele>1214</ele>
        <time>2021-05-28T07:29:45.204Z</time>
      </trkpt>
      <trkpt lat="44.231" lon="5.74986">
        <ele>1221.2</ele>
        <time>2021-05-28T07:30:36.197Z</time>
      </trkpt>
      <trkpt lat="44.23029" lon="5.75072">
        <ele>1232.8</ele>
        <time>2021-05-28T07:31:54.012Z</time>
      </trkpt>
      <trkpt lat="44.23004" lon="5.7514">
        <ele>1229.5</ele>
        <time>2021-05-28T07:31:59.519Z</time>
      </trkpt>
      <trkpt lat="44.22952" lon="5.75137">
        <ele>1237.7</ele>
        <time>2021-05-28T07:32:48.851Z</time>
      </trkpt>
      <trkpt lat="44.22886" lon="5.75125">
        <ele>1254.6</ele>
        <time>2021-05-28T07:33:51.940Z</time>
      </trkpt>
      <trkpt lat="44.22893" lon="5.75201">
        <ele>1256.3</ele>
        <time>2021-05-28T07:34:10.775Z</time>
      </trkpt>
      <trkpt lat="44.22931" lon="5.75381">
        <ele>1267.1</ele>
        <time>2021-05-28T07:35:22.878Z</time>
      </trkpt>
      <trkpt lat="44.22967" lon="5.75488">
        <ele>1279</ele>
        <time>2021-05-28T07:36:43.165Z</time>
      </trkpt>
      <trkpt lat="44.22991" lon="5.7553">
        <ele>1280.6</ele>
        <time>2021-05-28T07:36:58.441Z</time>
      </trkpt>
      <trkpt lat="44.23053" lon="5.75547">
        <ele>1285.8</ele>
        <time>2021-05-28T07:37:32.879Z</time>
      </trkpt>
      <trkpt lat="44.23117" lon="5.75602">
        <ele>1302.9</ele>
        <time>2021-05-28T07:38:44.123Z</time>
      </trkpt>
      <trkpt lat="44.23138" lon="5.75514">
        <ele>1301.1</ele>
        <time>2021-05-28T07:38:53.207Z</time>
      </trkpt>
      <trkpt lat="44.23151" lon="5.75408">
        <ele>1301.2</ele>
        <time>2021-05-28T07:39:12.372Z</time>
      </trkpt>
      <trkpt lat="44.23182" lon="5.75345">
        <ele>1305.5</ele>
        <time>2021-05-28T07:39:41.311Z</time>
      </trkpt>
      <trkpt lat="44.23189" lon="5.75399">
        <ele>1313.3</ele>
        <time>2021-05-28T07:40:18.582Z</time>
      </trkpt>
      <trkpt lat="44.23214" lon="5.75424">
        <ele>1324.6</ele>
        <time>2021-05-28T07:40:47.734Z</time>
      </trkpt>
      <trkpt lat="44.23249" lon="5.75358">
        <ele>1330.3</ele>
        <time>2021-05-28T07:41:24.225Z</time>
      </trkpt>
      <trkpt lat="44.23244" lon="5.75465">
        <ele>1339.8</ele>
        <time>2021-05-28T07:42:28.028Z</time>
      </trkpt>
      <trkpt lat="44.23221" lon="5.75509">
        <ele>1334</ele>
        <time>2021-05-28T07:42:32.104Z</time>
      </trkpt>
      <trkpt lat="44.23233" lon="5.75671">
        <ele>1350.6</ele>
        <time>2021-05-28T07:44:22.716Z</time>
      </trkpt>
      <trkpt lat="44.23228" lon="5.75804">
        <ele>1360.6</ele>
        <time>2021-05-28T07:45:26.688Z</time>
      </trkpt>
      <trkpt lat="44.23205" lon="5.75882">
        <ele>1359.3</ele>
        <time>2021-05-28T07:45:35.479Z</time>
      </trkpt>
      <trkpt lat="44.23115" lon="5.75978">
        <ele>1358.5</ele>
        <time>2021-05-28T07:46:00.599Z</time>
      </trkpt>
      <trkpt lat="44.22974" lon="5.75786">
        <ele>1352.4</ele>
        <time>2021-05-28T07:46:26.441Z</time>
      </trkpt>
      <trkpt lat="44.22923" lon="5.75755">
        <ele>1356</ele>
        <time>2021-05-28T07:46:52.895Z</time>
      </trkpt>
      <trkpt lat="44.22977" lon="5.75859">
        <ele>1370.3</ele>
        <time>2021-05-28T07:48:20.129Z</time>
      </trkpt>
      <trkpt lat="44.23003" lon="5.75975">
        <ele>1388.4</ele>
        <time>2021-05-28T07:49:42.681Z</time>
      </trkpt>
      <trkpt lat="44.23" lon="5.76099">
        <ele>1404.1</ele>
        <time>2021-05-28T07:51:06.949Z</time>
      </trkpt>
      <trkpt lat="44.22997" lon="5.76175">
        <ele>1408.7</ele>
        <time>2021-05-28T07:51:37.190Z</time>
      </trkpt>
      <trkpt lat="44.22957" lon="5.7618">
        <ele>1405.1</ele>
        <time>2021-05-28T07:51:41.384Z</time>
      </trkpt>
      <trkpt lat="44.22874" lon="5.75984">
        <ele>1418.6</ele>
        <time>2021-05-28T07:53:10.639Z</time>
      </trkpt>
      <trkpt lat="44.22786" lon="5.75801">
        <ele>1391.5</ele>
        <time>2021-05-28T07:53:27.133Z</time>
      </trkpt>
      <trkpt lat="44.22728" lon="5.75671">
        <ele>1398.9</ele>
        <time>2021-05-28T07:54:20.368Z</time>
      </trkpt>
      <trkpt lat="44.22625" lon="5.75536">
        <ele>1422.6</ele>
        <time>2021-05-28T07:56:34.310Z</time>
      </trkpt>
      <trkpt lat="44.22537" lon="5.75378">
        <ele>1454.9</ele>
        <time>2021-05-28T07:58:50.235Z</time>
      </trkpt>
      <trkpt lat="44.22435" lon="5.75344">
        <ele>1477.7</ele>
        <time>2021-05-28T08:00:29.639Z</time>
      </trkpt>
      <trkpt lat="44.2239" lon="5.75188">
        <ele>1471.6</ele>
        <time>2021-05-28T08:00:42.767Z</time>
      </trkpt>
      <trkpt lat="44.22353" lon="5.74948">
        <ele>1471</ele>
        <time>2021-05-28T08:01:23.853Z</time>
      </trkpt>
      <trkpt lat="44.22339" lon="5.74713">
        <ele>1465.4</ele>
        <time>2021-05-28T08:01:45.531Z</time>
      </trkpt>
      <trkpt lat="44.22289" lon="5.74726">
        <ele>1454.8</ele>
        <time>2021-05-28T08:01:50.843Z</time>
      </trkpt>
      <trkpt lat="44.22255" lon="5.74754">
        <ele>1449.7</ele>
        <time>2021-05-28T08:01:54.967Z</time>
      </trkpt>
      <trkpt lat="44.22228" lon="5.74812">
        <ele>1448.1</ele>
        <time>2021-05-28T08:02:01.381Z</time>
      </trkpt>
      <trkpt lat="44.22226" lon="5.7489">
        <ele>1448.9</ele>
        <time>2021-05-28T08:02:17.199Z</time>
      </trkpt>
      <trkpt lat="44.22237" lon="5.74976">
        <ele>1447.5</ele>
        <time>2021-05-28T08:02:26.218Z</time>
      </trkpt>
      <trkpt lat="44.22255" lon="5.7506">
        <ele>1445</ele>
        <time>2021-05-28T08:02:33.768Z</time>
      </trkpt>
      <trkpt lat="44.22268" lon="5.75125">
        <ele>1447.4</ele>
        <time>2021-05-28T08:02:54.498Z</time>
      </trkpt>
      <trkpt lat="44.22257" lon="5.75209">
        <ele>1447.3</ele>
        <time>2021-05-28T08:03:09.169Z</time>
      </trkpt>
      <trkpt lat="44.22246" lon="5.75253">
        <ele>1448.1</ele>
        <time>2021-05-28T08:03:19.683Z</time>
      </trkpt>
      <trkpt lat="44.2219" lon="5.75245">
        <ele>1443.7</ele>
        <time>2021-05-28T08:03:25.562Z</time>
      </trkpt>
      <trkpt lat="44.22147" lon="5.7523">
        <ele>1439</ele>
        <time>2021-05-28T08:03:30.192Z</time>
      </trkpt>
      <trkpt lat="44.22117" lon="5.75206">
        <ele>1433.5</ele>
        <time>2021-05-28T08:03:33.804Z</time>
      </trkpt>
      <trkpt lat="44.22072" lon="5.7519">
        <ele>1428.4</ele>
        <time>2021-05-28T08:03:38.654Z</time>
      </trkpt>
      <trkpt lat="44.2203" lon="5.75209">
        <ele>1429.7</ele>
        <time>2021-05-28T08:03:53.511Z</time>
      </trkpt>
      <trkpt lat="44.22011" lon="5.75232">
        <ele>1431.7</ele>
        <time>2021-05-28T08:04:06.911Z</time>
      </trkpt>
      <trkpt lat="44.21962" lon="5.75227">
        <ele>1424.8</ele>
        <time>2021-05-28T08:04:12.042Z</time>
      </trkpt>
      <trkpt lat="44.21926" lon="5.75219">
        <ele>1419.1</ele>
        <time>2021-05-28T08:04:15.850Z</time>
      </trkpt>
      <trkpt lat="44.21897" lon="5.7523">
        <ele>1415.8</ele>
        <time>2021-05-28T08:04:18.989Z</time>
      </trkpt>
      <trkpt lat="44.21864" lon="5.7523">
        <ele>1411.1</ele>
        <time>2021-05-28T08:04:22.435Z</time>
      </trkpt>
      <trkpt lat="44.21805" lon="5.75214">
        <ele>1401.6</ele>
        <time>2021-05-28T08:04:28.713Z</time>
      </trkpt>
      <trkpt lat="44.21762" lon="5.75206">
        <ele>1395.2</ele>
        <time>2021-05-28T08:04:33.244Z</time>
      </trkpt>
      <trkpt lat="44.21746" lon="5.75196">
        <ele>1393.1</ele>
        <time>2021-05-28T08:04:35.075Z</time>
      </trkpt>
      <trkpt lat="44.21708" lon="5.75209">
        <ele>1387.2</ele>
        <time>2021-05-28T08:04:39.162Z</time>
      </trkpt>
      <trkpt lat="44.21683" lon="5.75224">
        <ele>1382.2</ele>
        <time>2021-05-28T08:04:42.004Z</time>
      </trkpt>
      <trkpt lat="44.2167" lon="5.75274">
        <ele>1375.1</ele>
        <time>2021-05-28T08:04:45.985Z</time>
      </trkpt>
      <trkpt lat="44.21699" lon="5.75318">
        <ele>1377.1</ele>
        <time>2021-05-28T08:05:04.003Z</time>
      </trkpt>
      <trkpt lat="44.21704" lon="5.75347">
        <ele>1377.6</ele>
        <time>2021-05-28T08:05:10.689Z</time>
      </trkpt>
      <trkpt lat="44.21681" lon="5.75339">
        <ele>1371.9</ele>
        <time>2021-05-28T08:05:13.165Z</time>
      </trkpt>
      <trkpt lat="44.21658" lon="5.75342">
        <ele>1366.6</ele>
        <time>2021-05-28T08:05:15.578Z</time>
      </trkpt>
      <trkpt lat="44.21614" lon="5.75378">
        <ele>1357.2</ele>
        <time>2021-05-28T08:05:20.905Z</time>
      </trkpt>
      <trkpt lat="44.21595" lon="5.75389">
        <ele>1352.2</ele>
        <time>2021-05-28T08:05:23.054Z</time>
      </trkpt>
      <trkpt lat="44.21593" lon="5.75334">
        <ele>1348.6</ele>
        <time>2021-05-28T08:05:27.176Z</time>
      </trkpt>
      <trkpt lat="44.21571" lon="5.75313">
        <ele>1345.9</ele>
        <time>2021-05-28T08:05:29.960Z</time>
      </trkpt>
      <trkpt lat="44.21537" lon="5.7529">
        <ele>1341.5</ele>
        <time>2021-05-28T08:05:33.907Z</time>
      </trkpt>
      <trkpt lat="44.21503" lon="5.75284">
        <ele>1334.7</ele>
        <time>2021-05-28T08:05:37.486Z</time>
      </trkpt>
      <trkpt lat="44.21467" lon="5.75292">
        <ele>1325.1</ele>
        <time>2021-05-28T08:05:41.294Z</time>
      </trkpt>
      <trkpt lat="44.21445" lon="5.75292">
        <ele>1320.3</ele>
        <time>2021-05-28T08:05:43.592Z</time>
      </trkpt>
      <trkpt lat="44.21431" lon="5.75261">
        <ele>1320.1</ele>
        <time>2021-05-28T08:05:48.140Z</time>
      </trkpt>
      <trkpt lat="44.21395" lon="5.75214">
        <ele>1313.5</ele>
        <time>2021-05-28T08:05:53.290Z</time>
      </trkpt>
      <trkpt lat="44.21386" lon="5.75175">
        <ele>1314.6</ele>
        <time>2021-05-28T08:06:04.276Z</time>
      </trkpt>
      <trkpt lat="44.21361" lon="5.75164">
        <ele>1307.6</ele>
        <time>2021-05-28T08:06:07.014Z</time>
      </trkpt>
      <trkpt lat="44.21334" lon="5.75183">
        <ele>1297.4</ele>
        <time>2021-05-28T08:06:10.172Z</time>
      </trkpt>
      <trkpt lat="44.21298" lon="5.75164">
        <ele>1293.9</ele>
        <time>2021-05-28T08:06:14.192Z</time>
      </trkpt>
      <trkpt lat="44.21264" lon="5.75164">
        <ele>1289</ele>
        <time>2021-05-28T08:06:17.743Z</time>
      </trkpt>
      <trkpt lat="44.21262" lon="5.75162">
        <ele>1288.8</ele>
        <time>2021-05-28T08:06:18.000Z</time>
      </trkpt>
      <trkpt lat="44.21236" lon="5.75181">
        <ele>1289.2</ele>
        <time>2021-05-28T08:06:26.242Z</time>
      </trkpt>
      <trkpt lat="44.21212" lon="5.75233">
        <ele>1287.5</ele>
        <time>2021-05-28T08:06:31.643Z</time>
      </trkpt>
      <trkpt lat="44.2119" lon="5.75272">
        <ele>1287.8</ele>
        <time>2021-05-28T08:06:41.117Z</time>
      </trkpt>
      <trkpt lat="44.21158" lon="5.75321">
        <ele>1290.7</ele>
        <time>2021-05-28T08:07:03.125Z</time>
      </trkpt>
      <trkpt lat="44.21136" lon="5.75366">
        <ele>1289.5</ele>
        <time>2021-05-28T08:07:08.259Z</time>
      </trkpt>
      <trkpt lat="44.2111" lon="5.75432">
        <ele>1284.4</ele>
        <time>2021-05-28T08:07:13.897Z</time>
      </trkpt>
      <trkpt lat="44.21091" lon="5.75443">
        <ele>1287</ele>
        <time>2021-05-28T08:07:31.594Z</time>
      </trkpt>
      <trkpt lat="44.21054" lon="5.75439">
        <ele>1291.3</ele>
        <time>2021-05-28T08:07:59.649Z</time>
      </trkpt>
      <trkpt lat="44.21009" lon="5.7545">
        <ele>1294</ele>
        <time>2021-05-28T08:08:20.525Z</time>
      </trkpt>
      <trkpt lat="44.20973" lon="5.75486">
        <ele>1289.9</ele>
        <time>2021-05-28T08:08:25.151Z</time>
      </trkpt>
      <trkpt lat="44.20992" lon="5.75504">
        <ele>1289.9</ele>
        <time>2021-05-28T08:08:30.795Z</time>
      </trkpt>
      <trkpt lat="44.21009" lon="5.75592">
        <ele>1298.6</ele>
        <time>2021-05-28T08:09:32.487Z</time>
      </trkpt>
      <trkpt lat="44.21016" lon="5.75625">
        <ele>1301</ele>
        <time>2021-05-28T08:09:47.846Z</time>
      </trkpt>
      <trkpt lat="44.20994" lon="5.75888">
        <ele>1338</ele>
        <time>2021-05-28T08:12:47.749Z</time>
      </trkpt>
      <trkpt lat="44.20982" lon="5.75908">
        <ele>1340.7</ele>
        <time>2021-05-28T08:13:05.470Z</time>
      </trkpt>
      <trkpt lat="44.2098" lon="5.75941">
        <ele>1344.9</ele>
        <time>2021-05-28T08:13:27.971Z</time>
      </trkpt>
      <trkpt lat="44.20968" lon="5.76006">
        <ele>1353</ele>
        <time>2021-05-28T08:14:13.576Z</time>
      </trkpt>
      <trkpt lat="44.20933" lon="5.76074">
        <ele>1359.7</ele>
        <time>2021-05-28T08:14:56.837Z</time>
      </trkpt>
      <trkpt lat="44.20907" lon="5.76149">
        <ele>1367.4</ele>
        <time>2021-05-28T08:15:49.990Z</time>
      </trkpt>
      <trkpt lat="44.20883" lon="5.76257">
        <ele>1380.6</ele>
        <time>2021-05-28T08:17:06.816Z</time>
      </trkpt>
      <trkpt lat="44.20868" lon="5.76398">
        <ele>1412.6</ele>
        <time>2021-05-28T08:18:43.667Z</time>
      </trkpt>
      <trkpt lat="44.20854" lon="5.76465">
        <ele>1429.6</ele>
        <time>2021-05-28T08:19:31.085Z</time>
      </trkpt>
      <trkpt lat="44.20843" lon="5.7649">
        <ele>1437.9</ele>
        <time>2021-05-28T08:19:51.016Z</time>
      </trkpt>
      <trkpt lat="44.20837" lon="5.76525">
        <ele>1446.1</ele>
        <time>2021-05-28T08:20:15.467Z</time>
      </trkpt>
      <trkpt lat="44.20821" lon="5.76559">
        <ele>1452.9</ele>
        <time>2021-05-28T08:20:43.102Z</time>
      </trkpt>
      <trkpt lat="44.20805" lon="5.76565">
        <ele>1454.1</ele>
        <time>2021-05-28T08:20:51.448Z</time>
      </trkpt>
      <trkpt lat="44.20803" lon="5.76595">
        <ele>1460.7</ele>
        <time>2021-05-28T08:21:11.919Z</time>
      </trkpt>
      <trkpt lat="44.20773" lon="5.76624">
        <ele>1470</ele>
        <time>2021-05-28T08:21:46.515Z</time>
      </trkpt>
      <trkpt lat="44.20776" lon="5.76652">
        <ele>1477.1</ele>
        <time>2021-05-28T08:22:05.752Z</time>
      </trkpt>
      <trkpt lat="44.20769" lon="5.76649">
        <ele>1477.2</ele>
        <time>2021-05-28T08:22:07.808Z</time>
      </trkpt>
      <trkpt lat="44.20757" lon="5.76674">
        <ele>1485.4</ele>
        <time>2021-05-28T08:22:28.252Z</time>
      </trkpt>
      <trkpt lat="44.20752" lon="5.76704">
        <ele>1492.6</ele>
        <time>2021-05-28T08:22:49.179Z</time>
      </trkpt>
      <trkpt lat="44.20751" lon="5.76716">
        <ele>1495.4</ele>
        <time>2021-05-28T08:22:57.387Z</time>
      </trkpt>
      <trkpt lat="44.20744" lon="5.76719">
        <ele>1494.5</ele>
        <time>2021-05-28T08:22:58.152Z</time>
      </trkpt>
      <trkpt lat="44.20724" lon="5.76775">
        <ele>1500.3</ele>
        <time>2021-05-28T08:23:38.280Z</time>
      </trkpt>
      <trkpt lat="44.20724" lon="5.76795">
        <ele>1504</ele>
        <time>2021-05-28T08:23:51.869Z</time>
      </trkpt>
      <trkpt lat="44.20717" lon="5.76819">
        <ele>1507.2</ele>
        <time>2021-05-28T08:24:09.475Z</time>
      </trkpt>
      <trkpt lat="44.207" lon="5.76838">
        <ele>1508</ele>
        <time>2021-05-28T08:24:17.541Z</time>
      </trkpt>
      <trkpt lat="44.20692" lon="5.76856">
        <ele>1510.9</ele>
        <time>2021-05-28T08:24:31.932Z</time>
      </trkpt>
      <trkpt lat="44.20682" lon="5.76933">
        <ele>1528.4</ele>
        <time>2021-05-28T08:25:25.103Z</time>
      </trkpt>
      <trkpt lat="44.20685" lon="5.76963">
        <ele>1535.3</ele>
        <time>2021-05-28T08:25:45.684Z</time>
      </trkpt>
      <trkpt lat="44.2068" lon="5.76969">
        <ele>1536.6</ele>
        <time>2021-05-28T08:25:51.936Z</time>
      </trkpt>
      <trkpt lat="44.20662" lon="5.77061">
        <ele>1557.2</ele>
        <time>2021-05-28T08:26:56.733Z</time>
      </trkpt>
      <trkpt lat="44.20663" lon="5.77072">
        <ele>1560.5</ele>
        <time>2021-05-28T08:27:04.268Z</time>
      </trkpt>
      <trkpt lat="44.2067" lon="5.771">
        <ele>1567</ele>
        <time>2021-05-28T08:27:24.417Z</time>
      </trkpt>
      <trkpt lat="44.2066" lon="5.7713">
        <ele>1570.7</ele>
        <time>2021-05-28T08:27:46.897Z</time>
      </trkpt>
      <trkpt lat="44.20633" lon="5.7719">
        <ele>1574</ele>
        <time>2021-05-28T08:28:11.094Z</time>
      </trkpt>
      <trkpt lat="44.20616" lon="5.77261">
        <ele>1581.7</ele>
        <time>2021-05-28T08:29:01.956Z</time>
      </trkpt>
      <trkpt lat="44.20569" lon="5.77376">
        <ele>1594.3</ele>
        <time>2021-05-28T08:30:31.063Z</time>
      </trkpt>
      <trkpt lat="44.20565" lon="5.77413">
        <ele>1594.5</ele>
        <time>2021-05-28T08:30:38.138Z</time>
      </trkpt>
      <trkpt lat="44.20556" lon="5.77505">
        <ele>1579.3</ele>
        <time>2021-05-28T08:30:45.090Z</time>
      </trkpt>
      <trkpt lat="44.20561" lon="5.77525">
        <ele>1577.5</ele>
        <time>2021-05-28T08:30:46.675Z</time>
      </trkpt>
      <trkpt lat="44.20576" lon="5.77604">
        <ele>1567.2</ele>
        <time>2021-05-28T08:30:52.794Z</time>
      </trkpt>
      <trkpt lat="44.20571" lon="5.77646">
        <ele>1550.7</ele>
        <time>2021-05-28T08:30:55.982Z</time>
      </trkpt>
      <trkpt lat="44.20589" lon="5.77681">
        <ele>1544.8</ele>
        <time>2021-05-28T08:30:59.207Z</time>
      </trkpt>
      <trkpt lat="44.20628" lon="5.7774">
        <ele>1524.3</ele>
        <time>2021-05-28T08:31:05.216Z</time>
      </trkpt>
      <trkpt lat="44.20635" lon="5.77741">
        <ele>1524.8</ele>
        <time>2021-05-28T08:31:08.723Z</time>
      </trkpt>
      <trkpt lat="44.20638" lon="5.77794">
        <ele>1503.5</ele>
        <time>2021-05-28T08:31:12.704Z</time>
      </trkpt>
      <trkpt lat="44.2065" lon="5.77808">
        <ele>1501</ele>
        <time>2021-05-28T08:31:14.338Z</time>
      </trkpt>
      <trkpt lat="44.20669" lon="5.77772">
        <ele>1518</ele>
        <time>2021-05-28T08:31:44.714Z</time>
      </trkpt>
      <trkpt lat="44.20694" lon="5.77752">
        <ele>1521.1</ele>
        <time>2021-05-28T08:32:04.597Z</time>
      </trkpt>
      <trkpt lat="44.2071" lon="5.77748">
        <ele>1519.7</ele>
        <time>2021-05-28T08:32:06.295Z</time>
      </trkpt>
      <trkpt lat="44.20727" lon="5.77753">
        <ele>1515.6</ele>
        <time>2021-05-28T08:32:08.110Z</time>
      </trkpt>
      <trkpt lat="44.20752" lon="5.7777">
        <ele>1506.4</ele>
        <time>2021-05-28T08:32:11.014Z</time>
      </trkpt>
      <trkpt lat="44.20762" lon="5.77795">
        <ele>1495.7</ele>
        <time>2021-05-28T08:32:13.158Z</time>
      </trkpt>
      <trkpt lat="44.20787" lon="5.7782">
        <ele>1480.4</ele>
        <time>2021-05-28T08:32:16.371Z</time>
      </trkpt>
      <trkpt lat="44.20812" lon="5.77861">
        <ele>1458</ele>
        <time>2021-05-28T08:32:20.401Z</time>
      </trkpt>
      <trkpt lat="44.20813" lon="5.77916">
        <ele>1436.7</ele>
        <time>2021-05-28T08:32:24.520Z</time>
      </trkpt>
      <trkpt lat="44.20822" lon="5.7794">
        <ele>1426.6</ele>
        <time>2021-05-28T08:32:26.547Z</time>
      </trkpt>
      <trkpt lat="44.20825" lon="5.77963">
        <ele>1417.8</ele>
        <time>2021-05-28T08:32:28.298Z</time>
      </trkpt>
      <trkpt lat="44.20821" lon="5.77974">
        <ele>1414.6</ele>
        <time>2021-05-28T08:32:29.221Z</time>
      </trkpt>
      <trkpt lat="44.20819" lon="5.78014">
        <ele>1401.8</ele>
        <time>2021-05-28T08:32:32.223Z</time>
      </trkpt>
      <trkpt lat="44.20829" lon="5.78056">
        <ele>1389.3</ele>
        <time>2021-05-28T08:32:35.537Z</time>
      </trkpt>
      <trkpt lat="44.20829" lon="5.7807">
        <ele>1385.6</ele>
        <time>2021-05-28T08:32:36.585Z</time>
      </trkpt>
      <trkpt lat="44.20852" lon="5.78144">
        <ele>1371.3</ele>
        <time>2021-05-28T08:32:42.623Z</time>
      </trkpt>
      <trkpt lat="44.20839" lon="5.78168">
        <ele>1370.6</ele>
        <time>2021-05-28T08:32:45.409Z</time>
      </trkpt>
      <trkpt lat="44.2082" lon="5.7819">
        <ele>1371.7</ele>
        <time>2021-05-28T08:32:55.653Z</time>
      </trkpt>
      <trkpt lat="44.20802" lon="5.78178">
        <ele>1368.4</ele>
        <time>2021-05-28T08:32:57.737Z</time>
      </trkpt>
      <trkpt lat="44.20791" lon="5.78162">
        <ele>1367.9</ele>
        <time>2021-05-28T08:32:59.811Z</time>
      </trkpt>
      <trkpt lat="44.20782" lon="5.78164">
        <ele>1366.6</ele>
        <time>2021-05-28T08:33:00.762Z</time>
      </trkpt>
      <trkpt lat="44.20773" lon="5.78216">
        <ele>1363</ele>
        <time>2021-05-28T08:33:04.767Z</time>
      </trkpt>
      <trkpt lat="44.20766" lon="5.78226">
        <ele>1360.7</ele>
        <time>2021-05-28T08:33:05.814Z</time>
      </trkpt>
      <trkpt lat="44.20746" lon="5.78262">
        <ele>1350.5</ele>
        <time>2021-05-28T08:33:09.224Z</time>
      </trkpt>
      <trkpt lat="44.20724" lon="5.78274">
        <ele>1340.2</ele>
        <time>2021-05-28T08:33:11.691Z</time>
      </trkpt>
      <trkpt lat="44.20709" lon="5.78292">
        <ele>1331.4</ele>
        <time>2021-05-28T08:33:13.758Z</time>
      </trkpt>
      <trkpt lat="44.20709" lon="5.783">
        <ele>1330.1</ele>
        <time>2021-05-28T08:33:14.357Z</time>
      </trkpt>
      <trkpt lat="44.20685" lon="5.78296">
        <ele>1321.7</ele>
        <time>2021-05-28T08:33:16.881Z</time>
      </trkpt>
      <trkpt lat="44.20673" lon="5.78315">
        <ele>1313.7</ele>
        <time>2021-05-28T08:33:18.777Z</time>
      </trkpt>
      <trkpt lat="44.20644" lon="5.78305">
        <ele>1309.3</ele>
        <time>2021-05-28T08:33:21.897Z</time>
      </trkpt>
      <trkpt lat="44.20663" lon="5.78393">
        <ele>1295.2</ele>
        <time>2021-05-28T08:33:28.778Z</time>
      </trkpt>
      <trkpt lat="44.20659" lon="5.78411">
        <ele>1290.9</ele>
        <time>2021-05-28T08:33:30.189Z</time>
      </trkpt>
      <trkpt lat="44.20665" lon="5.78457">
        <ele>1283.9</ele>
        <time>2021-05-28T08:33:33.690Z</time>
      </trkpt>
      <trkpt lat="44.2066" lon="5.78481">
        <ele>1278.9</ele>
        <time>2021-05-28T08:33:35.561Z</time>
      </trkpt>
      <trkpt lat="44.20641" lon="5.78492">
        <ele>1273.5</ele>
        <time>2021-05-28T08:33:37.710Z</time>
      </trkpt>
      <trkpt lat="44.20616" lon="5.78483">
        <ele>1270.4</ele>
        <time>2021-05-28T08:33:40.406Z</time>
      </trkpt>
      <trkpt lat="44.20608" lon="5.78491">
        <ele>1267.4</ele>
        <time>2021-05-28T08:33:41.434Z</time>
      </trkpt>
      <trkpt lat="44.20626" lon="5.78544">
        <ele>1257.8</ele>
        <time>2021-05-28T08:33:45.825Z</time>
      </trkpt>
      <trkpt lat="44.20634" lon="5.78557">
        <ele>1255.9</ele>
        <time>2021-05-28T08:33:47.108Z</time>
      </trkpt>
      <trkpt lat="44.20669" lon="5.78577">
        <ele>1257.4</ele>
        <time>2021-05-28T08:34:01.706Z</time>
      </trkpt>
      <trkpt lat="44.20659" lon="5.78614">
        <ele>1246.3</ele>
        <time>2021-05-28T08:34:04.666Z</time>
      </trkpt>
      <trkpt lat="44.20652" lon="5.78625">
        <ele>1242.4</ele>
        <time>2021-05-28T08:34:05.767Z</time>
      </trkpt>
      <trkpt lat="44.20657" lon="5.78652">
        <ele>1236.9</ele>
        <time>2021-05-28T08:34:07.855Z</time>
      </trkpt>
      <trkpt lat="44.20671" lon="5.78688">
        <ele>1231.8</ele>
        <time>2021-05-28T08:34:10.922Z</time>
      </trkpt>
      <trkpt lat="44.2069" lon="5.78718">
        <ele>1230.9</ele>
        <time>2021-05-28T08:34:14.671Z</time>
      </trkpt>
      <trkpt lat="44.20691" lon="5.7873">
        <ele>1228.4</ele>
        <time>2021-05-28T08:34:15.575Z</time>
      </trkpt>
      <trkpt lat="44.20679" lon="5.78759">
        <ele>1218.8</ele>
        <time>2021-05-28T08:34:18.082Z</time>
      </trkpt>
      <trkpt lat="44.2065" lon="5.78803">
        <ele>1206.6</ele>
        <time>2021-05-28T08:34:22.557Z</time>
      </trkpt>
      <trkpt lat="44.20645" lon="5.78876">
        <ele>1194.1</ele>
        <time>2021-05-28T08:34:28.048Z</time>
      </trkpt>
      <trkpt lat="44.20652" lon="5.78912">
        <ele>1189.1</ele>
        <time>2021-05-28T08:34:30.840Z</time>
      </trkpt>
      <trkpt lat="44.20574" lon="5.7893">
        <ele>1170.9</ele>
        <time>2021-05-28T08:34:39.098Z</time>
      </trkpt>
      <trkpt lat="44.20524" lon="5.78941">
        <ele>1158.2</ele>
        <time>2021-05-28T08:34:44.385Z</time>
      </trkpt>
      <trkpt lat="44.20502" lon="5.78936">
        <ele>1154.7</ele>
        <time>2021-05-28T08:34:46.713Z</time>
      </trkpt>
      <trkpt lat="44.2052" lon="5.78977">
        <ele>1150</ele>
        <time>2021-05-28T08:34:50.313Z</time>
      </trkpt>
      <trkpt lat="44.20527" lon="5.79035">
        <ele>1138.9</ele>
        <time>2021-05-28T08:34:54.716Z</time>
      </trkpt>
      <trkpt lat="44.20505" lon="5.78995">
        <ele>1143.8</ele>
        <time>2021-05-28T08:35:28.974Z</time>
      </trkpt>
      <trkpt lat="44.20461" lon="5.78976">
        <ele>1139.4</ele>
        <time>2021-05-28T08:35:33.785Z</time>
      </trkpt>
      <trkpt lat="44.20454" lon="5.78964">
        <ele>1140</ele>
        <time>2021-05-28T08:35:38.682Z</time>
      </trkpt>
      <trkpt lat="44.20439" lon="5.78905">
        <ele>1145.7</ele>
        <time>2021-05-28T08:36:17.609Z</time>
      </trkpt>
      <trkpt lat="44.20411" lon="5.7885">
        <ele>1145.7</ele>
        <time>2021-05-28T08:36:29.493Z</time>
      </trkpt>
      <trkpt lat="44.20408" lon="5.78824">
        <ele>1149.2</ele>
        <time>2021-05-28T08:36:47.387Z</time>
      </trkpt>
      <trkpt lat="44.20395" lon="5.78791">
        <ele>1153.8</ele>
        <time>2021-05-28T08:37:12.973Z</time>
      </trkpt>
      <trkpt lat="44.2035" lon="5.78737">
        <ele>1154.3</ele>
        <time>2021-05-28T08:37:28.780Z</time>
      </trkpt>
      <trkpt lat="44.20332" lon="5.78722">
        <ele>1153.1</ele>
        <time>2021-05-28T08:37:30.941Z</time>
      </trkpt>
      <trkpt lat="44.20323" lon="5.78703">
        <ele>1155.5</ele>
        <time>2021-05-28T08:37:46.416Z</time>
      </trkpt>
      <trkpt lat="44.20291" lon="5.7866">
        <ele>1157.5</ele>
        <time>2021-05-28T08:38:04.904Z</time>
      </trkpt>
      <trkpt lat="44.20282" lon="5.78625">
        <ele>1161.5</ele>
        <time>2021-05-28T08:38:30.171Z</time>
      </trkpt>
      <trkpt lat="44.20268" lon="5.78599">
        <ele>1162.6</ele>
        <time>2021-05-28T08:38:40.006Z</time>
      </trkpt>
      <trkpt lat="44.20259" lon="5.78592">
        <ele>1161.7</ele>
        <time>2021-05-28T08:38:41.083Z</time>
      </trkpt>
      <trkpt lat="44.20229" lon="5.78544">
        <ele>1166.6</ele>
        <time>2021-05-28T08:39:12.503Z</time>
      </trkpt>
      <trkpt lat="44.20203" lon="5.78525">
        <ele>1167.5</ele>
        <time>2021-05-28T08:39:22.533Z</time>
      </trkpt>
      <trkpt lat="44.20182" lon="5.78523">
        <ele>1165.2</ele>
        <time>2021-05-28T08:39:24.731Z</time>
      </trkpt>
      <trkpt lat="44.20156" lon="5.78497">
        <ele>1168.3</ele>
        <time>2021-05-28T08:39:44.577Z</time>
      </trkpt>
      <trkpt lat="44.2014" lon="5.78469">
        <ele>1172.8</ele>
        <time>2021-05-28T08:40:08.908Z</time>
      </trkpt>
      <trkpt lat="44.20135" lon="5.78447">
        <ele>1177.4</ele>
        <time>2021-05-28T08:40:24.591Z</time>
      </trkpt>
      <trkpt lat="44.20134" lon="5.78411">
        <ele>1185.5</ele>
        <time>2021-05-28T08:40:49.073Z</time>
      </trkpt>
      <trkpt lat="44.20114" lon="5.78351">
        <ele>1193.7</ele>
        <time>2021-05-28T08:41:34.037Z</time>
      </trkpt>
      <trkpt lat="44.20114" lon="5.78335">
        <ele>1196.5</ele>
        <time>2021-05-28T08:41:44.909Z</time>
      </trkpt>
      <trkpt lat="44.20143" lon="5.78332">
        <ele>1201.6</ele>
        <time>2021-05-28T08:42:12.473Z</time>
      </trkpt>
      <trkpt lat="44.20159" lon="5.7831">
        <ele>1208.3</ele>
        <time>2021-05-28T08:42:33.769Z</time>
      </trkpt>
      <trkpt lat="44.20231" lon="5.78258">
        <ele>1228.4</ele>
        <time>2021-05-28T08:43:50.622Z</time>
      </trkpt>
      <trkpt lat="44.20275" lon="5.7825">
        <ele>1239</ele>
        <time>2021-05-28T08:44:32.681Z</time>
      </trkpt>
      <trkpt lat="44.20294" lon="5.78254">
        <ele>1242.7</ele>
        <time>2021-05-28T08:44:50.895Z</time>
      </trkpt>
      <trkpt lat="44.20318" lon="5.78273">
        <ele>1244.5</ele>
        <time>2021-05-28T08:45:04.067Z</time>
      </trkpt>
      <trkpt lat="44.20331" lon="5.78292">
        <ele>1243.8</ele>
        <time>2021-05-28T08:45:06.387Z</time>
      </trkpt>
      <trkpt lat="44.2035" lon="5.78306">
        <ele>1245.6</ele>
        <time>2021-05-28T08:45:18.244Z</time>
      </trkpt>
      <trkpt lat="44.20384" lon="5.78295">
        <ele>1256.3</ele>
        <time>2021-05-28T08:45:51.327Z</time>
      </trkpt>
      <trkpt lat="44.20465" lon="5.78327">
        <ele>1270</ele>
        <time>2021-05-28T08:47:11.125Z</time>
      </trkpt>
      <trkpt lat="44.2047" lon="5.78316">
        <ele>1273.6</ele>
        <time>2021-05-28T08:47:19.976Z</time>
      </trkpt>
      <trkpt lat="44.20454" lon="5.78275">
        <ele>1277.8</ele>
        <time>2021-05-28T08:47:48.436Z</time>
      </trkpt>
      <trkpt lat="44.20431" lon="5.78243">
        <ele>1279.2</ele>
        <time>2021-05-28T08:48:01.625Z</time>
      </trkpt>
      <trkpt lat="44.20418" lon="5.78211">
        <ele>1284.1</ele>
        <time>2021-05-28T08:48:26.618Z</time>
      </trkpt>
      <trkpt lat="44.20404" lon="5.78206">
        <ele>1282.1</ele>
        <time>2021-05-28T08:48:28.128Z</time>
      </trkpt>
      <trkpt lat="44.20389" lon="5.7819">
        <ele>1282.6</ele>
        <time>2021-05-28T08:48:34.254Z</time>
      </trkpt>
      <trkpt lat="44.20357" lon="5.7817">
        <ele>1280.5</ele>
        <time>2021-05-28T08:48:37.791Z</time>
      </trkpt>
      <trkpt lat="44.20349" lon="5.78159">
        <ele>1281.8</ele>
        <time>2021-05-28T08:48:46.269Z</time>
      </trkpt>
      <trkpt lat="44.20342" lon="5.78081">
        <ele>1302.2</ele>
        <time>2021-05-28T08:49:39.684Z</time>
      </trkpt>
      <trkpt lat="44.20321" lon="5.78059">
        <ele>1301.3</ele>
        <time>2021-05-28T08:49:43.015Z</time>
      </trkpt>
      <trkpt lat="44.20312" lon="5.77996">
        <ele>1312.1</ele>
        <time>2021-05-28T08:50:26.666Z</time>
      </trkpt>
      <trkpt lat="44.20315" lon="5.77938">
        <ele>1323</ele>
        <time>2021-05-28T08:51:06.180Z</time>
      </trkpt>
      <trkpt lat="44.20311" lon="5.77912">
        <ele>1327.2</ele>
        <time>2021-05-28T08:51:24.250Z</time>
      </trkpt>
      <trkpt lat="44.20282" lon="5.77858">
        <ele>1337.3</ele>
        <time>2021-05-28T08:52:10.098Z</time>
      </trkpt>
      <trkpt lat="44.20265" lon="5.77882">
        <ele>1327.8</ele>
        <time>2021-05-28T08:52:12.624Z</time>
      </trkpt>
      <trkpt lat="44.20259" lon="5.77907">
        <ele>1319.5</ele>
        <time>2021-05-28T08:52:14.598Z</time>
      </trkpt>
      <trkpt lat="44.20227" lon="5.77937">
        <ele>1307.8</ele>
        <time>2021-05-28T08:52:18.625Z</time>
      </trkpt>
      <trkpt lat="44.20198" lon="5.77938">
        <ele>1304.6</ele>
        <time>2021-05-28T08:52:21.655Z</time>
      </trkpt>
      <trkpt lat="44.20167" lon="5.77927">
        <ele>1304.8</ele>
        <time>2021-05-28T08:52:29.993Z</time>
      </trkpt>
      <trkpt lat="44.20129" lon="5.7794">
        <ele>1298.5</ele>
        <time>2021-05-28T08:52:34.080Z</time>
      </trkpt>
      <trkpt lat="44.20114" lon="5.7796">
        <ele>1291.3</ele>
        <time>2021-05-28T08:52:36.247Z</time>
      </trkpt>
      <trkpt lat="44.20063" lon="5.78005">
        <ele>1273.2</ele>
        <time>2021-05-28T08:52:42.550Z</time>
      </trkpt>
      <trkpt lat="44.20037" lon="5.78007">
        <ele>1269.8</ele>
        <time>2021-05-28T08:52:45.270Z</time>
      </trkpt>
      <trkpt lat="44.1998" lon="5.78129">
        <ele>1238.3</ele>
        <time>2021-05-28T08:52:56.174Z</time>
      </trkpt>
      <trkpt lat="44.19966" lon="5.78145">
        <ele>1233.8</ele>
        <time>2021-05-28T08:52:58.064Z</time>
      </trkpt>
      <trkpt lat="44.19934" lon="5.78144">
        <ele>1233.4</ele>
        <time>2021-05-28T08:53:03.260Z</time>
      </trkpt>
      <trkpt lat="44.19912" lon="5.78117">
        <ele>1235.9</ele>
        <time>2021-05-28T08:53:19.642Z</time>
      </trkpt>
      <trkpt lat="44.19909" lon="5.78104">
        <ele>1237.2</ele>
        <time>2021-05-28T08:53:28.836Z</time>
      </trkpt>
      <trkpt lat="44.19897" lon="5.78077">
        <ele>1238.7</ele>
        <time>2021-05-28T08:53:39.757Z</time>
      </trkpt>
      <trkpt lat="44.19874" lon="5.78039">
        <ele>1238</ele>
        <time>2021-05-28T08:53:45.059Z</time>
      </trkpt>
      <trkpt lat="44.19862" lon="5.78027">
        <ele>1237.4</ele>
        <time>2021-05-28T08:53:46.819Z</time>
      </trkpt>
      <trkpt lat="44.19841" lon="5.7804">
        <ele>1234</ele>
        <time>2021-05-28T08:53:49.218Z</time>
      </trkpt>
      <trkpt lat="44.19814" lon="5.78078">
        <ele>1235.3</ele>
        <time>2021-05-28T08:54:02.888Z</time>
      </trkpt>
      <trkpt lat="44.19815" lon="5.78103">
        <ele>1231.5</ele>
        <time>2021-05-28T08:54:04.763Z</time>
      </trkpt>
      <trkpt lat="44.19804" lon="5.78161">
        <ele>1224.9</ele>
        <time>2021-05-28T08:54:09.255Z</time>
      </trkpt>
      <trkpt lat="44.19813" lon="5.78168">
        <ele>1221.7</ele>
        <time>2021-05-28T08:54:10.332Z</time>
      </trkpt>
      <trkpt lat="44.19818" lon="5.78199">
        <ele>1215.8</ele>
        <time>2021-05-28T08:54:12.711Z</time>
      </trkpt>
      <trkpt lat="44.19816" lon="5.7822">
        <ele>1213.1</ele>
        <time>2021-05-28T08:54:14.297Z</time>
      </trkpt>
      <trkpt lat="44.19823" lon="5.78227">
        <ele>1210.2</ele>
        <time>2021-05-28T08:54:15.197Z</time>
      </trkpt>
      <trkpt lat="44.19838" lon="5.78287">
        <ele>1197.8</ele>
        <time>2021-05-28T08:54:19.955Z</time>
      </trkpt>
      <trkpt lat="44.19843" lon="5.78311">
        <ele>1193.3</ele>
        <time>2021-05-28T08:54:21.827Z</time>
      </trkpt>
      <trkpt lat="44.19839" lon="5.78334">
        <ele>1189.4</ele>
        <time>2021-05-28T08:54:23.599Z</time>
      </trkpt>
      <trkpt lat="44.19838" lon="5.78386">
        <ele>1183.7</ele>
        <time>2021-05-28T08:54:27.494Z</time>
      </trkpt>
      <trkpt lat="44.19829" lon="5.78391">
        <ele>1184.2</ele>
        <time>2021-05-28T08:54:31.701Z</time>
      </trkpt>
      <trkpt lat="44.19785" lon="5.78423">
        <ele>1183.3</ele>
        <time>2021-05-28T08:54:39.212Z</time>
      </trkpt>
      <trkpt lat="44.19777" lon="5.7843">
        <ele>1184.1</ele>
        <time>2021-05-28T08:54:44.465Z</time>
      </trkpt>
      <trkpt lat="44.19742" lon="5.78461">
        <ele>1185.8</ele>
        <time>2021-05-28T08:55:00.782Z</time>
      </trkpt>
      <trkpt lat="44.19681" lon="5.78467">
        <ele>1174.3</ele>
        <time>2021-05-28T08:55:07.169Z</time>
      </trkpt>
      <trkpt lat="44.19652" lon="5.7848">
        <ele>1161.9</ele>
        <time>2021-05-28T08:55:10.350Z</time>
      </trkpt>
      <trkpt lat="44.19632" lon="5.78568">
        <ele>1150.6</ele>
        <time>2021-05-28T08:55:17.263Z</time>
      </trkpt>
      <trkpt lat="44.19624" lon="5.7857">
        <ele>1145.7</ele>
        <time>2021-05-28T08:55:18.112Z</time>
      </trkpt>
      <trkpt lat="44.19552" lon="5.78673">
        <ele>1123.2</ele>
        <time>2021-05-28T08:55:28.884Z</time>
      </trkpt>
      <trkpt lat="44.19512" lon="5.78715">
        <ele>1104.5</ele>
        <time>2021-05-28T08:55:34.114Z</time>
      </trkpt>
      <trkpt lat="44.19513" lon="5.78695">
        <ele>1102.5</ele>
        <time>2021-05-28T08:55:35.615Z</time>
      </trkpt>
      <trkpt lat="44.19502" lon="5.78701">
        <ele>1096.4</ele>
        <time>2021-05-28T08:55:36.849Z</time>
      </trkpt>
      <trkpt lat="44.19475" lon="5.78706">
        <ele>1081.6</ele>
        <time>2021-05-28T08:55:39.693Z</time>
      </trkpt>
      <trkpt lat="44.19457" lon="5.78744">
        <ele>1076</ele>
        <time>2021-05-28T08:55:43.104Z</time>
      </trkpt>
      <trkpt lat="44.19455" lon="5.78731">
        <ele>1073.3</ele>
        <time>2021-05-28T08:55:44.100Z</time>
      </trkpt>
      <trkpt lat="44.19436" lon="5.78753">
        <ele>1065.4</ele>
        <time>2021-05-28T08:55:46.679Z</time>
      </trkpt>
      <trkpt lat="44.19429" lon="5.78721">
        <ele>1057.5</ele>
        <time>2021-05-28T08:55:49.184Z</time>
      </trkpt>
      <trkpt lat="44.19412" lon="5.78737">
        <ele>1050.3</ele>
        <time>2021-05-28T08:55:51.326Z</time>
      </trkpt>
      <trkpt lat="44.19402" lon="5.78707">
        <ele>1042.2</ele>
        <time>2021-05-28T08:55:53.804Z</time>
      </trkpt>
      <trkpt lat="44.19404" lon="5.78683">
        <ele>1040.2</ele>
        <time>2021-05-28T08:55:55.613Z</time>
      </trkpt>
      <trkpt lat="44.19398" lon="5.78617">
        <ele>1034.4</ele>
        <time>2021-05-28T08:56:00.595Z</time>
      </trkpt>
      <trkpt lat="44.19395" lon="5.78614">
        <ele>1033.5</ele>
        <time>2021-05-28T08:56:00.981Z</time>
      </trkpt>
      <trkpt lat="44.19345" lon="5.78692">
        <ele>1014.4</ele>
        <time>2021-05-28T08:56:08.816Z</time>
      </trkpt>
      <trkpt lat="44.19342" lon="5.78705">
        <ele>1014.6</ele>
        <time>2021-05-28T08:56:11.776Z</time>
      </trkpt>
      <trkpt lat="44.19323" lon="5.78687">
        <ele>1006.2</ele>
        <time>2021-05-28T08:56:14.175Z</time>
      </trkpt>
      <trkpt lat="44.1927" lon="5.7869">
        <ele>994.7</ele>
        <time>2021-05-28T08:56:19.716Z</time>
      </trkpt>
      <trkpt lat="44.19241" lon="5.78712">
        <ele>986.2</ele>
        <time>2021-05-28T08:56:23.164Z</time>
      </trkpt>
      <trkpt lat="44.19235" lon="5.7873">
        <ele>982.5</ele>
        <time>2021-05-28T08:56:24.650Z</time>
      </trkpt>
      <trkpt lat="44.19186" lon="5.78755">
        <ele>968</ele>
        <time>2021-05-28T08:56:30.100Z</time>
      </trkpt>
      <trkpt lat="44.19143" lon="5.78777">
        <ele>961.1</ele>
        <time>2021-05-28T08:56:34.884Z</time>
      </trkpt>
      <trkpt lat="44.19078" lon="5.78843">
        <ele>942.7</ele>
        <time>2021-05-28T08:56:43.281Z</time>
      </trkpt>
      <trkpt lat="44.19075" lon="5.78853">
        <ele>942.3</ele>
        <time>2021-05-28T08:56:44.122Z</time>
      </trkpt>
      <trkpt lat="44.19058" lon="5.78874">
        <ele>939.4</ele>
        <time>2021-05-28T08:56:46.494Z</time>
      </trkpt>
      <trkpt lat="44.1904" lon="5.78886">
        <ele>935.4</ele>
        <time>2021-05-28T08:56:48.577Z</time>
      </trkpt>
      <trkpt lat="44.1903" lon="5.78884">
        <ele>933.8</ele>
        <time>2021-05-28T08:56:49.633Z</time>
      </trkpt>
      <trkpt lat="44.18988" lon="5.7892">
        <ele>921.7</ele>
        <time>2021-05-28T08:56:54.782Z</time>
      </trkpt>
      <trkpt lat="44.18964" lon="5.78942">
        <ele>920</ele>
        <time>2021-05-28T08:56:57.695Z</time>
      </trkpt>
      <trkpt lat="44.18944" lon="5.79006">
        <ele>913.3</ele>
        <time>2021-05-28T08:57:02.923Z</time>
      </trkpt>
      <trkpt lat="44.18936" lon="5.79013">
        <ele>910.9</ele>
        <time>2021-05-28T08:57:03.910Z</time>
      </trkpt>
      <trkpt lat="44.18931" lon="5.79051">
        <ele>905</ele>
        <time>2021-05-28T08:57:06.803Z</time>
      </trkpt>
      <trkpt lat="44.18921" lon="5.79072">
        <ele>899.1</ele>
        <time>2021-05-28T08:57:08.691Z</time>
      </trkpt>
      <trkpt lat="44.18893" lon="5.79084">
        <ele>893.7</ele>
        <time>2021-05-28T08:57:11.750Z</time>
      </trkpt>
      <trkpt lat="44.18862" lon="5.79128">
        <ele>888.7</ele>
        <time>2021-05-28T08:57:16.370Z</time>
      </trkpt>
      <trkpt lat="44.18818" lon="5.79131">
        <ele>882.6</ele>
        <time>2021-05-28T08:57:20.971Z</time>
      </trkpt>
      <trkpt lat="44.18782" lon="5.79168">
        <ele>874.8</ele>
        <time>2021-05-28T08:57:25.642Z</time>
      </trkpt>
      <trkpt lat="44.18782" lon="5.79168">
        <ele>874.8</ele>
        <time>2021-05-28T08:57:25.642Z</time>
      </trkpt>
      <trkpt lat="44.18766" lon="5.79157">
        <ele>874.3</ele>
        <time>2021-05-28T08:57:28.056Z</time>
      </trkpt>
      <trkpt lat="44.18735" lon="5.79155">
        <ele>871.6</ele>
        <time>2021-05-28T08:57:31.297Z</time>
      </trkpt>
      <trkpt lat="44.18723" lon="5.79142">
        <ele>872.5</ele>
        <time>2021-05-28T08:57:38.247Z</time>
      </trkpt>
      <trkpt lat="44.187" lon="5.79084">
        <ele>877.9</ele>
        <time>2021-05-28T08:58:13.268Z</time>
      </trkpt>
      <trkpt lat="44.1865" lon="5.79045">
        <ele>873.8</ele>
        <time>2021-05-28T08:58:19.252Z</time>
      </trkpt>
      <trkpt lat="44.18645" lon="5.79025">
        <ele>874.3</ele>
        <time>2021-05-28T08:58:24.595Z</time>
      </trkpt>
      <trkpt lat="44.18652" lon="5.78962">
        <ele>881.9</ele>
        <time>2021-05-28T08:59:07.928Z</time>
      </trkpt>
      <trkpt lat="44.18647" lon="5.78932">
        <ele>884.6</ele>
        <time>2021-05-28T08:59:25.949Z</time>
      </trkpt>
      <trkpt lat="44.18625" lon="5.78879">
        <ele>888.4</ele>
        <time>2021-05-28T08:59:50.758Z</time>
      </trkpt>
      <trkpt lat="44.18585" lon="5.78811">
        <ele>892.6</ele>
        <time>2021-05-28T09:00:21.165Z</time>
      </trkpt>
      <trkpt lat="44.18561" lon="5.78781">
        <ele>896.5</ele>
        <time>2021-05-28T09:00:47.063Z</time>
      </trkpt>
      <trkpt lat="44.18484" lon="5.78738">
        <ele>902.2</ele>
        <time>2021-05-28T09:01:27.687Z</time>
      </trkpt>
      <trkpt lat="44.18408" lon="5.78715">
        <ele>912.4</ele>
        <time>2021-05-28T09:02:39.055Z</time>
      </trkpt>
      <trkpt lat="44.18341" lon="5.78733">
        <ele>916.6</ele>
        <time>2021-05-28T09:03:10.776Z</time>
      </trkpt>
      <trkpt lat="44.1832" lon="5.78752">
        <ele>915.5</ele>
        <time>2021-05-28T09:03:13.670Z</time>
      </trkpt>
      <trkpt lat="44.18308" lon="5.78752">
        <ele>916.3</ele>
        <time>2021-05-28T09:03:19.458Z</time>
      </trkpt>
      <trkpt lat="44.18305" lon="5.78739">
        <ele>918</ele>
        <time>2021-05-28T09:03:28.741Z</time>
      </trkpt>
      <trkpt lat="44.18321" lon="5.78714">
        <ele>920.5</ele>
        <time>2021-05-28T09:03:44.727Z</time>
      </trkpt>
      <trkpt lat="44.1833" lon="5.78675">
        <ele>925.7</ele>
        <time>2021-05-28T09:04:12.575Z</time>
      </trkpt>
      <trkpt lat="44.18323" lon="5.78629">
        <ele>931.6</ele>
        <time>2021-05-28T09:04:44.540Z</time>
      </trkpt>
      <trkpt lat="44.18329" lon="5.78623">
        <ele>932.6</ele>
        <time>2021-05-28T09:04:51.538Z</time>
      </trkpt>
      <trkpt lat="44.18349" lon="5.78567">
        <ele>940.8</ele>
        <time>2021-05-28T09:05:34.063Z</time>
      </trkpt>
      <trkpt lat="44.18349" lon="5.78535">
        <ele>946.3</ele>
        <time>2021-05-28T09:05:55.815Z</time>
      </trkpt>
      <trkpt lat="44.18324" lon="5.78497">
        <ele>949.7</ele>
        <time>2021-05-28T09:06:17.727Z</time>
      </trkpt>
      <trkpt lat="44.18306" lon="5.78432">
        <ele>957</ele>
        <time>2021-05-28T09:07:05.090Z</time>
      </trkpt>
      <trkpt lat="44.18308" lon="5.78413">
        <ele>959.9</ele>
        <time>2021-05-28T09:07:18.143Z</time>
      </trkpt>
      <trkpt lat="44.18324" lon="5.78393">
        <ele>965.5</ele>
        <time>2021-05-28T09:07:38.511Z</time>
      </trkpt>
      <trkpt lat="44.18299" lon="5.78275">
        <ele>979.3</ele>
        <time>2021-05-28T09:09:02.147Z</time>
      </trkpt>
      <trkpt lat="44.18297" lon="5.78241">
        <ele>983.3</ele>
        <time>2021-05-28T09:09:25.336Z</time>
      </trkpt>
      <trkpt lat="44.18303" lon="5.78234">
        <ele>985.1</ele>
        <time>2021-05-28T09:09:32.752Z</time>
      </trkpt>
      <trkpt lat="44.18313" lon="5.78182">
        <ele>991.8</ele>
        <time>2021-05-28T09:10:09.347Z</time>
      </trkpt>
      <trkpt lat="44.18327" lon="5.78145">
        <ele>996.9</ele>
        <time>2021-05-28T09:10:37.784Z</time>
      </trkpt>
      <trkpt lat="44.18338" lon="5.78134">
        <ele>999.6</ele>
        <time>2021-05-28T09:10:50.614Z</time>
      </trkpt>
      <trkpt lat="44.18357" lon="5.78091">
        <ele>1004.4</ele>
        <time>2021-05-28T09:11:24.501Z</time>
      </trkpt>
      <trkpt lat="44.18397" lon="5.7804">
        <ele>1009.3</ele>
        <time>2021-05-28T09:11:56.177Z</time>
      </trkpt>
      <trkpt lat="44.18439" lon="5.78002">
        <ele>1015.1</ele>
        <time>2021-05-28T09:12:34.016Z</time>
      </trkpt>
      <trkpt lat="44.18457" lon="5.78005">
        <ele>1020.1</ele>
        <time>2021-05-28T09:12:51.199Z</time>
      </trkpt>
      <trkpt lat="44.18457" lon="5.7803">
        <ele>1022.4</ele>
        <time>2021-05-28T09:13:07.017Z</time>
      </trkpt>
      <trkpt lat="44.18437" lon="5.78111">
        <ele>1024</ele>
        <time>2021-05-28T09:13:26.844Z</time>
      </trkpt>
      <trkpt lat="44.1844" lon="5.78127">
        <ele>1025.4</ele>
        <time>2021-05-28T09:13:36.040Z</time>
      </trkpt>
      <trkpt lat="44.18466" lon="5.78102">
        <ele>1030.1</ele>
        <time>2021-05-28T09:14:05.976Z</time>
      </trkpt>
      <trkpt lat="44.18499" lon="5.78049">
        <ele>1034.3</ele>
        <time>2021-05-28T09:14:33.674Z</time>
      </trkpt>
      <trkpt lat="44.18524" lon="5.78007">
        <ele>1040.2</ele>
        <time>2021-05-28T09:15:10.776Z</time>
      </trkpt>
      <trkpt lat="44.18551" lon="5.77957">
        <ele>1045.7</ele>
        <time>2021-05-28T09:15:47.532Z</time>
      </trkpt>
      <trkpt lat="44.18556" lon="5.77926">
        <ele>1044.8</ele>
        <time>2021-05-28T09:15:50.278Z</time>
      </trkpt>
      <trkpt lat="44.18569" lon="5.77905">
        <ele>1048</ele>
        <time>2021-05-28T09:16:09.135Z</time>
      </trkpt>
      <trkpt lat="44.18595" lon="5.77879">
        <ele>1056.9</ele>
        <time>2021-05-28T09:16:39.461Z</time>
      </trkpt>
      <trkpt lat="44.18617" lon="5.77839">
        <ele>1063.8</ele>
        <time>2021-05-28T09:17:13.726Z</time>
      </trkpt>
      <trkpt lat="44.18621" lon="5.77783">
        <ele>1057.8</ele>
        <time>2021-05-28T09:17:17.941Z</time>
      </trkpt>
      <trkpt lat="44.18629" lon="5.77749">
        <ele>1057.1</ele>
        <time>2021-05-28T09:17:21.441Z</time>
      </trkpt>
      <trkpt lat="44.18656" lon="5.77695">
        <ele>1062.6</ele>
        <time>2021-05-28T09:17:57.393Z</time>
      </trkpt>
      <trkpt lat="44.18677" lon="5.77669">
        <ele>1069.9</ele>
        <time>2021-05-28T09:18:24.011Z</time>
      </trkpt>
      <trkpt lat="44.18697" lon="5.77591">
        <ele>1074</ele>
        <time>2021-05-28T09:18:53.170Z</time>
      </trkpt>
      <trkpt lat="44.18696" lon="5.77543">
        <ele>1070.2</ele>
        <time>2021-05-28T09:18:56.766Z</time>
      </trkpt>
      <trkpt lat="44.18714" lon="5.77481">
        <ele>1073.7</ele>
        <time>2021-05-28T09:19:21.028Z</time>
      </trkpt>
      <trkpt lat="44.18756" lon="5.77414">
        <ele>1078.6</ele>
        <time>2021-05-28T09:19:54.286Z</time>
      </trkpt>
      <trkpt lat="44.18711" lon="5.77419">
        <ele>1064.7</ele>
        <time>2021-05-28T09:19:59.001Z</time>
      </trkpt>
      <trkpt lat="44.18691" lon="5.77414">
        <ele>1057.5</ele>
        <time>2021-05-28T09:20:01.123Z</time>
      </trkpt>
      <trkpt lat="44.18685" lon="5.77399">
        <ele>1053.3</ele>
        <time>2021-05-28T09:20:02.410Z</time>
      </trkpt>
      <trkpt lat="44.18687" lon="5.77374">
        <ele>1050.2</ele>
        <time>2021-05-28T09:20:04.294Z</time>
      </trkpt>
      <trkpt lat="44.18679" lon="5.77365">
        <ele>1046.1</ele>
        <time>2021-05-28T09:20:05.367Z</time>
      </trkpt>
      <trkpt lat="44.18675" lon="5.77336">
        <ele>1040.3</ele>
        <time>2021-05-28T09:20:07.579Z</time>
      </trkpt>
      <trkpt lat="44.18657" lon="5.77327">
        <ele>1033</ele>
        <time>2021-05-28T09:20:09.576Z</time>
      </trkpt>
      <trkpt lat="44.18643" lon="5.77328">
        <ele>1029.5</ele>
        <time>2021-05-28T09:20:11.041Z</time>
      </trkpt>
      <trkpt lat="44.1861" lon="5.77355">
        <ele>1022.3</ele>
        <time>2021-05-28T09:20:15.037Z</time>
      </trkpt>
      <trkpt lat="44.18596" lon="5.77355">
        <ele>1017.8</ele>
        <time>2021-05-28T09:20:16.499Z</time>
      </trkpt>
      <trkpt lat="44.18587" lon="5.77344">
        <ele>1015</ele>
        <time>2021-05-28T09:20:17.749Z</time>
      </trkpt>
      <trkpt lat="44.18603" lon="5.77271">
        <ele>1013.8</ele>
        <time>2021-05-28T09:20:25.674Z</time>
      </trkpt>
      <trkpt lat="44.18601" lon="5.77241">
        <ele>1010.5</ele>
        <time>2021-05-28T09:20:27.931Z</time>
      </trkpt>
      <trkpt lat="44.18578" lon="5.77194">
        <ele>1001.2</ele>
        <time>2021-05-28T09:20:32.192Z</time>
      </trkpt>
      <trkpt lat="44.18575" lon="5.77168">
        <ele>997.1</ele>
        <time>2021-05-28T09:20:34.165Z</time>
      </trkpt>
      <trkpt lat="44.18584" lon="5.77121">
        <ele>994.1</ele>
        <time>2021-05-28T09:20:37.808Z</time>
      </trkpt>
      <trkpt lat="44.18586" lon="5.7706">
        <ele>987.6</ele>
        <time>2021-05-28T09:20:42.382Z</time>
      </trkpt>
      <trkpt lat="44.18581" lon="5.77015">
        <ele>982.3</ele>
        <time>2021-05-28T09:20:45.792Z</time>
      </trkpt>
      <trkpt lat="44.18584" lon="5.76981">
        <ele>979.4</ele>
        <time>2021-05-28T09:20:48.358Z</time>
      </trkpt>
      <trkpt lat="44.18579" lon="5.76962">
        <ele>977.1</ele>
        <time>2021-05-28T09:20:49.874Z</time>
      </trkpt>
      <trkpt lat="44.18592" lon="5.76911">
        <ele>973.4</ele>
        <time>2021-05-28T09:20:53.928Z</time>
      </trkpt>
      <trkpt lat="44.18591" lon="5.76896">
        <ele>972.4</ele>
        <time>2021-05-28T09:20:55.056Z</time>
      </trkpt>
      <trkpt lat="44.18598" lon="5.76886">
        <ele>971.6</ele>
        <time>2021-05-28T09:20:56.103Z</time>
      </trkpt>
      <trkpt lat="44.18623" lon="5.76803">
        <ele>964.2</ele>
        <time>2021-05-28T09:21:02.845Z</time>
      </trkpt>
      <trkpt lat="44.18629" lon="5.7676">
        <ele>958.7</ele>
        <time>2021-05-28T09:21:06.126Z</time>
      </trkpt>
      <trkpt lat="44.18642" lon="5.76768">
        <ele>959.6</ele>
        <time>2021-05-28T09:21:12.817Z</time>
      </trkpt>
      <trkpt lat="44.18649" lon="5.76784">
        <ele>961.6</ele>
        <time>2021-05-28T09:21:25.556Z</time>
      </trkpt>
      <trkpt lat="44.18659" lon="5.76793">
        <ele>962.7</ele>
        <time>2021-05-28T09:21:32.639Z</time>
      </trkpt>
      <trkpt lat="44.18685" lon="5.768">
        <ele>966.5</ele>
        <time>2021-05-28T09:21:57.739Z</time>
      </trkpt>
      <trkpt lat="44.18695" lon="5.76792">
        <ele>967.1</ele>
        <time>2021-05-28T09:22:02.761Z</time>
      </trkpt>
      <trkpt lat="44.18688" lon="5.76746">
        <ele>959.8</ele>
        <time>2021-05-28T09:22:06.282Z</time>
      </trkpt>
      <trkpt lat="44.18689" lon="5.76725">
        <ele>955.6</ele>
        <time>2021-05-28T09:22:07.859Z</time>
      </trkpt>
      <trkpt lat="44.18708" lon="5.767">
        <ele>954.6</ele>
        <time>2021-05-28T09:22:11.043Z</time>
      </trkpt>
      <trkpt lat="44.18728" lon="5.76648">
        <ele>949.8</ele>
        <time>2021-05-28T09:22:15.463Z</time>
      </trkpt>
      <trkpt lat="44.1872" lon="5.76638">
        <ele>945.8</ele>
        <time>2021-05-28T09:22:16.585Z</time>
      </trkpt>
      <trkpt lat="44.18711" lon="5.7664">
        <ele>944</ele>
        <time>2021-05-28T09:22:17.537Z</time>
      </trkpt>
      <trkpt lat="44.18701" lon="5.76663">
        <ele>946</ele>
        <time>2021-05-28T09:22:30.323Z</time>
      </trkpt>
      <trkpt lat="44.18649" lon="5.76693">
        <ele>943.6</ele>
        <time>2021-05-28T09:22:36.906Z</time>
      </trkpt>
      <trkpt lat="44.18619" lon="5.76672">
        <ele>937.6</ele>
        <time>2021-05-28T09:22:40.412Z</time>
      </trkpt>
      <trkpt lat="44.18582" lon="5.76674">
        <ele>937</ele>
        <time>2021-05-28T09:22:46.149Z</time>
      </trkpt>
      <trkpt lat="44.18542" lon="5.76635">
        <ele>925.5</ele>
        <time>2021-05-28T09:22:51.247Z</time>
      </trkpt>
      <trkpt lat="44.1855" lon="5.76626">
        <ele>923.4</ele>
        <time>2021-05-28T09:22:52.320Z</time>
      </trkpt>
      <trkpt lat="44.18581" lon="5.76655">
        <ele>932</ele>
        <time>2021-05-28T09:23:27.704Z</time>
      </trkpt>
      <trkpt lat="44.18594" lon="5.76648">
        <ele>930.9</ele>
        <time>2021-05-28T09:23:29.159Z</time>
      </trkpt>
      <trkpt lat="44.18598" lon="5.76634">
        <ele>927.7</ele>
        <time>2021-05-28T09:23:30.288Z</time>
      </trkpt>
      <trkpt lat="44.18587" lon="5.76614">
        <ele>922</ele>
        <time>2021-05-28T09:23:32.176Z</time>
      </trkpt>
      <trkpt lat="44.18527" lon="5.76594">
        <ele>913.6</ele>
        <time>2021-05-28T09:23:38.619Z</time>
      </trkpt>
      <trkpt lat="44.18469" lon="5.76604">
        <ele>909.6</ele>
        <time>2021-05-28T09:23:44.723Z</time>
      </trkpt>
      <trkpt lat="44.1844" lon="5.76627">
        <ele>909.2</ele>
        <time>2021-05-28T09:23:50.175Z</time>
      </trkpt>
      <trkpt lat="44.18412" lon="5.76625">
        <ele>903.4</ele>
        <time>2021-05-28T09:23:53.103Z</time>
      </trkpt>
      <trkpt lat="44.18365" lon="5.76636">
        <ele>898.8</ele>
        <time>2021-05-28T09:23:58.081Z</time>
      </trkpt>
      <trkpt lat="44.18243" lon="5.76611">
        <ele>891.6</ele>
        <time>2021-05-28T09:24:10.669Z</time>
      </trkpt>
      <trkpt lat="44.18222" lon="5.76617">
        <ele>893.4</ele>
        <time>2021-05-28T09:24:22.518Z</time>
      </trkpt>
      <trkpt lat="44.18194" lon="5.76643">
        <ele>890</ele>
        <time>2021-05-28T09:24:26.031Z</time>
      </trkpt>
      <trkpt lat="44.18178" lon="5.7668">
        <ele>880.5</ele>
        <time>2021-05-28T09:24:29.267Z</time>
      </trkpt>
      <trkpt lat="44.18166" lon="5.76693">
        <ele>876.5</ele>
        <time>2021-05-28T09:24:30.854Z</time>
      </trkpt>
      <trkpt lat="44.18153" lon="5.76697">
        <ele>872.5</ele>
        <time>2021-05-28T09:24:32.245Z</time>
      </trkpt>
      <trkpt lat="44.18136" lon="5.76686">
        <ele>871.2</ele>
        <time>2021-05-28T09:24:34.202Z</time>
      </trkpt>
      <trkpt lat="44.18125" lon="5.76668">
        <ele>873.2</ele>
        <time>2021-05-28T09:24:47.335Z</time>
      </trkpt>
      <trkpt lat="44.18114" lon="5.76677">
        <ele>868.4</ele>
        <time>2021-05-28T09:24:48.667Z</time>
      </trkpt>
      <trkpt lat="44.18115" lon="5.76687">
        <ele>866</ele>
        <time>2021-05-28T09:24:49.423Z</time>
      </trkpt>
      <trkpt lat="44.18156" lon="5.76719">
        <ele>867.8</ele>
        <time>2021-05-28T09:25:07.212Z</time>
      </trkpt>
      <trkpt lat="44.18196" lon="5.76727">
        <ele>873.1</ele>
        <time>2021-05-28T09:25:44.295Z</time>
      </trkpt>
      <trkpt lat="44.18194" lon="5.76737">
        <ele>871</ele>
        <time>2021-05-28T09:25:45.073Z</time>
      </trkpt>
      <trkpt lat="44.18179" lon="5.7674">
        <ele>867.7</ele>
        <time>2021-05-28T09:25:46.656Z</time>
      </trkpt>
      <trkpt lat="44.1811" lon="5.76726">
        <ele>854.9</ele>
        <time>2021-05-28T09:25:53.938Z</time>
      </trkpt>
      <trkpt lat="44.18098" lon="5.76716">
        <ele>854.5</ele>
        <time>2021-05-28T09:25:55.818Z</time>
      </trkpt>
      <trkpt lat="44.18074" lon="5.7667">
        <ele>858.2</ele>
        <time>2021-05-28T09:26:19.722Z</time>
      </trkpt>
      <trkpt lat="44.18031" lon="5.76627">
        <ele>849</ele>
        <time>2021-05-28T09:26:25.249Z</time>
      </trkpt>
      <trkpt lat="44.18016" lon="5.76599">
        <ele>849.4</ele>
        <time>2021-05-28T09:26:32.463Z</time>
      </trkpt>
      <trkpt lat="44.17977" lon="5.76561">
        <ele>843.8</ele>
        <time>2021-05-28T09:26:37.432Z</time>
      </trkpt>
      <trkpt lat="44.17933" lon="5.76539">
        <ele>829.3</ele>
        <time>2021-05-28T09:26:42.314Z</time>
      </trkpt>
      <trkpt lat="44.1791" lon="5.76488">
        <ele>825.5</ele>
        <time>2021-05-28T09:26:46.827Z</time>
      </trkpt>
      <trkpt lat="44.17916" lon="5.76478">
        <ele>828.1</ele>
        <time>2021-05-28T09:26:55.690Z</time>
      </trkpt>
      <trkpt lat="44.17906" lon="5.76458">
        <ele>825.2</ele>
        <time>2021-05-28T09:26:57.516Z</time>
      </trkpt>
      <trkpt lat="44.17904" lon="5.76441">
        <ele>824.9</ele>
        <time>2021-05-28T09:26:59.258Z</time>
      </trkpt>
      <trkpt lat="44.17862" lon="5.7639">
        <ele>802.2</ele>
        <time>2021-05-28T09:27:05.075Z</time>
      </trkpt>
      <trkpt lat="44.17857" lon="5.76363">
        <ele>797.3</ele>
        <time>2021-05-28T09:27:07.164Z</time>
      </trkpt>
      <trkpt lat="44.17878" lon="5.76324">
        <ele>804.3</ele>
        <time>2021-05-28T09:27:40.317Z</time>
      </trkpt>
      <trkpt lat="44.17876" lon="5.76291">
        <ele>796.9</ele>
        <time>2021-05-28T09:27:42.797Z</time>
      </trkpt>
      <trkpt lat="44.1788" lon="5.76267">
        <ele>794.6</ele>
        <time>2021-05-28T09:27:44.643Z</time>
      </trkpt>
      <trkpt lat="44.17886" lon="5.76258">
        <ele>796.2</ele>
        <time>2021-05-28T09:27:52.996Z</time>
      </trkpt>
      <trkpt lat="44.17882" lon="5.76238">
        <ele>790.8</ele>
        <time>2021-05-28T09:27:54.552Z</time>
      </trkpt>
      <trkpt lat="44.17883" lon="5.76205">
        <ele>786.8</ele>
        <time>2021-05-28T09:27:57.026Z</time>
      </trkpt>
      <trkpt lat="44.17868" lon="5.76178">
        <ele>774.7</ele>
        <time>2021-05-28T09:27:59.584Z</time>
      </trkpt>
      <trkpt lat="44.17873" lon="5.76162">
        <ele>775.9</ele>
        <time>2021-05-28T09:28:07.274Z</time>
      </trkpt>
      <trkpt lat="44.17854" lon="5.76121">
        <ele>767.9</ele>
        <time>2021-05-28T09:28:10.930Z</time>
      </trkpt>
      <trkpt lat="44.17866" lon="5.76111">
        <ele>773.3</ele>
        <time>2021-05-28T09:28:24.181Z</time>
      </trkpt>
      <trkpt lat="44.17869" lon="5.76096">
        <ele>774.8</ele>
        <time>2021-05-28T09:28:34.767Z</time>
      </trkpt>
      <trkpt lat="44.17796" lon="5.76035">
        <ele>757.1</ele>
        <time>2021-05-28T09:28:43.656Z</time>
      </trkpt>
      <trkpt lat="44.17794" lon="5.76041">
        <ele>756</ele>
        <time>2021-05-28T09:28:44.152Z</time>
      </trkpt>
      <trkpt lat="44.17789" lon="5.76039">
        <ele>754.7</ele>
        <time>2021-05-28T09:28:44.695Z</time>
      </trkpt>
      <trkpt lat="44.17742" lon="5.75918">
        <ele>748.4</ele>
        <time>2021-05-28T09:28:54.345Z</time>
      </trkpt>
      <trkpt lat="44.17739" lon="5.75893">
        <ele>746.1</ele>
        <time>2021-05-28T09:28:56.244Z</time>
      </trkpt>
      <trkpt lat="44.17725" lon="5.75909">
        <ele>742.7</ele>
        <time>2021-05-28T09:28:58.134Z</time>
      </trkpt>
      <trkpt lat="44.17717" lon="5.75907">
        <ele>740.1</ele>
        <time>2021-05-28T09:28:58.983Z</time>
      </trkpt>
      <trkpt lat="44.17668" lon="5.75856">
        <ele>721.8</ele>
        <time>2021-05-28T09:29:05.370Z</time>
      </trkpt>
      <trkpt lat="44.17677" lon="5.75804">
        <ele>717</ele>
        <time>2021-05-28T09:29:09.377Z</time>
      </trkpt>
      <trkpt lat="44.17677" lon="5.75772">
        <ele>710.2</ele>
        <time>2021-05-28T09:29:11.774Z</time>
      </trkpt>
      <trkpt lat="44.17683" lon="5.75755">
        <ele>708.5</ele>
        <time>2021-05-28T09:29:13.193Z</time>
      </trkpt>
      <trkpt lat="44.17687" lon="5.75717">
        <ele>700.9</ele>
        <time>2021-05-28T09:29:16.070Z</time>
      </trkpt>
      <trkpt lat="44.17699" lon="5.75702">
        <ele>701</ele>
        <time>2021-05-28T09:29:20.269Z</time>
      </trkpt>
      <trkpt lat="44.17697" lon="5.75687">
        <ele>696.7</ele>
        <time>2021-05-28T09:29:21.412Z</time>
      </trkpt>
      <trkpt lat="44.1767" lon="5.75667">
        <ele>684</ele>
        <time>2021-05-28T09:29:24.605Z</time>
      </trkpt>
      <trkpt lat="44.17674" lon="5.75657">
        <ele>684.3</ele>
        <time>2021-05-28T09:29:27.638Z</time>
      </trkpt>
      <trkpt lat="44.17665" lon="5.75635">
        <ele>680</ele>
        <time>2021-05-28T09:29:29.536Z</time>
      </trkpt>
      <trkpt lat="44.17667" lon="5.75618">
        <ele>679</ele>
        <time>2021-05-28T09:29:30.826Z</time>
      </trkpt>
      <trkpt lat="44.17659" lon="5.75606">
        <ele>676.5</ele>
        <time>2021-05-28T09:29:32.053Z</time>
      </trkpt>
      <trkpt lat="44.17658" lon="5.75582">
        <ele>674.4</ele>
        <time>2021-05-28T09:29:33.854Z</time>
      </trkpt>
      <trkpt lat="44.17652" lon="5.75566">
        <ele>673.2</ele>
        <time>2021-05-28T09:29:35.207Z</time>
      </trkpt>
      <trkpt lat="44.17611" lon="5.75534">
        <ele>665.8</ele>
        <time>2021-05-28T09:29:40.114Z</time>
      </trkpt>
      <trkpt lat="44.17559" lon="5.75513">
        <ele>658</ele>
        <time>2021-05-28T09:29:45.769Z</time>
      </trkpt>
      <trkpt lat="44.17538" lon="5.75496">
        <ele>655.9</ele>
        <time>2021-05-28T09:29:48.305Z</time>
      </trkpt>
      <trkpt lat="44.1753" lon="5.75481">
        <ele>656.3</ele>
        <time>2021-05-28T09:29:52.839Z</time>
      </trkpt>
      <trkpt lat="44.17526" lon="5.75454">
        <ele>658.1</ele>
        <time>2021-05-28T09:30:04.459Z</time>
      </trkpt>
      <trkpt lat="44.17511" lon="5.75417">
        <ele>658.8</ele>
        <time>2021-05-28T09:30:13.946Z</time>
      </trkpt>
      <trkpt lat="44.17497" lon="5.75403">
        <ele>657.8</ele>
        <time>2021-05-28T09:30:15.710Z</time>
      </trkpt>
      <trkpt lat="44.17458" lon="5.75394">
        <ele>652.1</ele>
        <time>2021-05-28T09:30:19.839Z</time>
      </trkpt>
      <trkpt lat="44.17439" lon="5.75379">
        <ele>649.8</ele>
        <time>2021-05-28T09:30:22.119Z</time>
      </trkpt>
      <trkpt lat="44.17422" lon="5.75347">
        <ele>648.4</ele>
        <time>2021-05-28T09:30:25.274Z</time>
      </trkpt>
      <trkpt lat="44.1741" lon="5.75293">
        <ele>646.2</ele>
        <time>2021-05-28T09:30:29.556Z</time>
      </trkpt>
      <trkpt lat="44.17411" lon="5.75249">
        <ele>645.3</ele>
        <time>2021-05-28T09:30:33.807Z</time>
      </trkpt>
      <trkpt lat="44.17427" lon="5.75212">
        <ele>645.5</ele>
        <time>2021-05-28T09:30:41.901Z</time>
      </trkpt>
      <trkpt lat="44.17428" lon="5.75191">
        <ele>644.4</ele>
        <time>2021-05-28T09:30:43.477Z</time>
      </trkpt>
      <trkpt lat="44.17421" lon="5.75182">
        <ele>643.2</ele>
        <time>2021-05-28T09:30:44.472Z</time>
      </trkpt>
      <trkpt lat="44.17421" lon="5.75182">
        <ele>643.2</ele>
        <time>2021-05-28T09:30:44.472Z</time>
      </trkpt>
      <trkpt lat="44.17366" lon="5.75117">
        <ele>644.5</ele>
        <time>2021-05-28T09:31:05.695Z</time>
      </trkpt>
      <trkpt lat="44.17322" lon="5.75018">
        <ele>650.3</ele>
        <time>2021-05-28T09:31:46.827Z</time>
      </trkpt>
      <trkpt lat="44.17282" lon="5.74954">
        <ele>653.4</ele>
        <time>2021-05-28T09:32:13.148Z</time>
      </trkpt>
      <trkpt lat="44.17267" lon="5.74881">
        <ele>656.2</ele>
        <time>2021-05-28T09:32:36.770Z</time>
      </trkpt>
      <trkpt lat="44.17282" lon="5.74769">
        <ele>662.5</ele>
        <time>2021-05-28T09:33:19.464Z</time>
      </trkpt>
      <trkpt lat="44.1727" lon="5.74679">
        <ele>665.1</ele>
        <time>2021-05-28T09:33:44.783Z</time>
      </trkpt>
      <trkpt lat="44.17218" lon="5.7455">
        <ele>664.5</ele>
        <time>2021-05-28T09:34:08.786Z</time>
      </trkpt>
      <trkpt lat="44.17193" lon="5.74477">
        <ele>666.1</ele>
        <time>2021-05-28T09:34:27.863Z</time>
      </trkpt>
      <trkpt lat="44.17181" lon="5.74409">
        <ele>658.9</ele>
        <time>2021-05-28T09:34:33.110Z</time>
      </trkpt>
      <trkpt lat="44.17138" lon="5.74302">
        <ele>646.5</ele>
        <time>2021-05-28T09:34:42.298Z</time>
      </trkpt>
      <trkpt lat="44.17085" lon="5.74246">
        <ele>637.9</ele>
        <time>2021-05-28T09:34:49.244Z</time>
      </trkpt>
      <trkpt lat="44.17067" lon="5.7422">
        <ele>635.5</ele>
        <time>2021-05-28T09:34:51.951Z</time>
      </trkpt>
      <trkpt lat="44.1711" lon="5.74134">
        <ele>635.4</ele>
        <time>2021-05-28T09:35:10.060Z</time>
      </trkpt>
      <trkpt lat="44.17147" lon="5.74078">
        <ele>638.6</ele>
        <time>2021-05-28T09:35:34.927Z</time>
      </trkpt>
      <trkpt lat="44.17153" lon="5.73997">
        <ele>639.3</ele>
        <time>2021-05-28T09:35:51.051Z</time>
      </trkpt>
      <trkpt lat="44.17165" lon="5.73894">
        <ele>639.3</ele>
        <time>2021-05-28T09:36:09.444Z</time>
      </trkpt>
      <trkpt lat="44.1721" lon="5.73855">
        <ele>646.8</ele>
        <time>2021-05-28T09:36:59.668Z</time>
      </trkpt>
      <trkpt lat="44.17232" lon="5.73802">
        <ele>651.6</ele>
        <time>2021-05-28T09:37:30.529Z</time>
      </trkpt>
      <trkpt lat="44.17258" lon="5.73857">
        <ele>657.1</ele>
        <time>2021-05-28T09:38:06.470Z</time>
      </trkpt>
      <trkpt lat="44.17278" lon="5.73859">
        <ele>663.7</ele>
        <time>2021-05-28T09:38:25.477Z</time>
      </trkpt>
      <trkpt lat="44.17259" lon="5.73825">
        <ele>658.5</ele>
        <time>2021-05-28T09:38:28.706Z</time>
      </trkpt>
      <trkpt lat="44.17286" lon="5.73711">
        <ele>669.2</ele>
        <time>2021-05-28T09:39:40.773Z</time>
      </trkpt>
      <trkpt lat="44.17296" lon="5.73733">
        <ele>674.1</ele>
        <time>2021-05-28T09:39:58.480Z</time>
      </trkpt>
      <trkpt lat="44.17287" lon="5.73767">
        <ele>670.6</ele>
        <time>2021-05-28T09:40:01.195Z</time>
      </trkpt>
      <trkpt lat="44.17295" lon="5.73799">
        <ele>672.5</ele>
        <time>2021-05-28T09:40:14.004Z</time>
      </trkpt>
      <trkpt lat="44.17315" lon="5.73772">
        <ele>681</ele>
        <time>2021-05-28T09:40:40.392Z</time>
      </trkpt>
      <trkpt lat="44.17376" lon="5.73718">
        <ele>703.1</ele>
        <time>2021-05-28T09:41:48.883Z</time>
      </trkpt>
      <trkpt lat="44.17355" lon="5.73817">
        <ele>694.6</ele>
        <time>2021-05-28T09:41:56.617Z</time>
      </trkpt>
      <trkpt lat="44.17392" lon="5.73767">
        <ele>707.9</ele>
        <time>2021-05-28T09:42:45.459Z</time>
      </trkpt>
      <trkpt lat="44.17435" lon="5.73744">
        <ele>720.8</ele>
        <time>2021-05-28T09:43:29.114Z</time>
      </trkpt>
      <trkpt lat="44.17427" lon="5.73673">
        <ele>722</ele>
        <time>2021-05-28T09:43:45.215Z</time>
      </trkpt>
      <trkpt lat="44.17409" lon="5.73623">
        <ele>719</ele>
        <time>2021-05-28T09:43:49.406Z</time>
      </trkpt>
      <trkpt lat="44.17436" lon="5.73535">
        <ele>727.2</ele>
        <time>2021-05-28T09:44:43.536Z</time>
      </trkpt>
      <trkpt lat="44.17479" lon="5.73456">
        <ele>736.6</ele>
        <time>2021-05-28T09:45:49.733Z</time>
      </trkpt>
      <trkpt lat="44.17483" lon="5.73535">
        <ele>743.8</ele>
        <time>2021-05-28T09:46:38.836Z</time>
      </trkpt>
      <trkpt lat="44.17529" lon="5.73638">
        <ele>755.5</ele>
        <time>2021-05-28T09:48:01.325Z</time>
      </trkpt>
      <trkpt lat="44.1759" lon="5.73733">
        <ele>765</ele>
        <time>2021-05-28T09:49:02.065Z</time>
      </trkpt>
      <trkpt lat="44.17615" lon="5.73754">
        <ele>770.3</ele>
        <time>2021-05-28T09:49:29.730Z</time>
      </trkpt>
      <trkpt lat="44.17632" lon="5.73812">
        <ele>767.8</ele>
        <time>2021-05-28T09:49:34.422Z</time>
      </trkpt>
      <trkpt lat="44.17661" lon="5.73739">
        <ele>784.1</ele>
        <time>2021-05-28T09:50:31.153Z</time>
      </trkpt>
      <trkpt lat="44.17655" lon="5.73638">
        <ele>788.4</ele>
        <time>2021-05-28T09:51:04.380Z</time>
      </trkpt>
      <trkpt lat="44.17687" lon="5.73538">
        <ele>796.2</ele>
        <time>2021-05-28T09:51:54.238Z</time>
      </trkpt>
      <trkpt lat="44.17695" lon="5.73589">
        <ele>800.6</ele>
        <time>2021-05-28T09:52:23.091Z</time>
      </trkpt>
      <trkpt lat="44.17721" lon="5.73651">
        <ele>804.9</ele>
        <time>2021-05-28T09:52:51.444Z</time>
      </trkpt>
      <trkpt lat="44.17769" lon="5.73699">
        <ele>812.9</ele>
        <time>2021-05-28T09:53:47.434Z</time>
      </trkpt>
      <trkpt lat="44.17815" lon="5.73769">
        <ele>807.4</ele>
        <time>2021-05-28T09:53:54.546Z</time>
      </trkpt>
      <trkpt lat="44.17812" lon="5.73645">
        <ele>828.1</ele>
        <time>2021-05-28T09:55:18.889Z</time>
      </trkpt>
      <trkpt lat="44.17813" lon="5.73602">
        <ele>829.4</ele>
        <time>2021-05-28T09:55:31.237Z</time>
      </trkpt>
      <trkpt lat="44.17853" lon="5.73527">
        <ele>837</ele>
        <time>2021-05-28T09:56:20.497Z</time>
      </trkpt>
      <trkpt lat="44.17873" lon="5.73593">
        <ele>833.9</ele>
        <time>2021-05-28T09:56:25.661Z</time>
      </trkpt>
      <trkpt lat="44.17898" lon="5.7349">
        <ele>848.6</ele>
        <time>2021-05-28T09:57:39.581Z</time>
      </trkpt>
      <trkpt lat="44.17904" lon="5.73422">
        <ele>860.2</ele>
        <time>2021-05-28T09:58:26.155Z</time>
      </trkpt>
      <trkpt lat="44.17909" lon="5.73375">
        <ele>864.4</ele>
        <time>2021-05-28T09:58:54.313Z</time>
      </trkpt>
      <trkpt lat="44.17941" lon="5.73422">
        <ele>863.3</ele>
        <time>2021-05-28T09:59:00.910Z</time>
      </trkpt>
      <trkpt lat="44.17987" lon="5.73398">
        <ele>867.2</ele>
        <time>2021-05-28T09:59:27.051Z</time>
      </trkpt>
      <trkpt lat="44.18009" lon="5.73377">
        <ele>872</ele>
        <time>2021-05-28T09:59:52.323Z</time>
      </trkpt>
      <trkpt lat="44.18035" lon="5.73323">
        <ele>879.8</ele>
        <time>2021-05-28T10:00:36.537Z</time>
      </trkpt>
      <trkpt lat="44.181" lon="5.73291">
        <ele>881.5</ele>
        <time>2021-05-28T10:00:58.420Z</time>
      </trkpt>
      <trkpt lat="44.1812" lon="5.73166">
        <ele>878.9</ele>
        <time>2021-05-28T10:01:10.811Z</time>
      </trkpt>
      <trkpt lat="44.1814" lon="5.73098">
        <ele>880.9</ele>
        <time>2021-05-28T10:01:30.664Z</time>
      </trkpt>
      <trkpt lat="44.18157" lon="5.73038">
        <ele>885.8</ele>
        <time>2021-05-28T10:02:02.037Z</time>
      </trkpt>
      <trkpt lat="44.18172" lon="5.73012">
        <ele>891.5</ele>
        <time>2021-05-28T10:02:24.720Z</time>
      </trkpt>
      <trkpt lat="44.1817" lon="5.72875">
        <ele>891</ele>
        <time>2021-05-28T10:02:47.123Z</time>
      </trkpt>
      <trkpt lat="44.1817" lon="5.72763">
        <ele>894.8</ele>
        <time>2021-05-28T10:03:21.039Z</time>
      </trkpt>
      <trkpt lat="44.18184" lon="5.72716">
        <ele>896.3</ele>
        <time>2021-05-28T10:03:35.423Z</time>
      </trkpt>
      <trkpt lat="44.18252" lon="5.72673">
        <ele>904.6</ele>
        <time>2021-05-28T10:04:28.962Z</time>
      </trkpt>
      <trkpt lat="44.183" lon="5.72615">
        <ele>909.7</ele>
        <time>2021-05-28T10:05:03.014Z</time>
      </trkpt>
      <trkpt lat="44.1826" lon="5.72568">
        <ele>906.5</ele>
        <time>2021-05-28T10:05:08.236Z</time>
      </trkpt>
      <trkpt lat="44.18223" lon="5.72525">
        <ele>906.8</ele>
        <time>2021-05-28T10:05:20.789Z</time>
      </trkpt>
      <trkpt lat="44.1819" lon="5.72488">
        <ele>904.8</ele>
        <time>2021-05-28T10:05:25.541Z</time>
      </trkpt>
      <trkpt lat="44.18189" lon="5.72413">
        <ele>907.8</ele>
        <time>2021-05-28T10:05:49.564Z</time>
      </trkpt>
      <trkpt lat="44.18212" lon="5.72364">
        <ele>908.3</ele>
        <time>2021-05-28T10:06:01.148Z</time>
      </trkpt>
      <trkpt lat="44.18272" lon="5.7233">
        <ele>916.9</ele>
        <time>2021-05-28T10:07:01.970Z</time>
      </trkpt>
      <trkpt lat="44.1826" lon="5.72405">
        <ele>920</ele>
        <time>2021-05-28T10:07:26.661Z</time>
      </trkpt>
      <trkpt lat="44.18286" lon="5.72458">
        <ele>923.3</ele>
        <time>2021-05-28T10:07:49.722Z</time>
      </trkpt>
      <trkpt lat="44.18307" lon="5.72448">
        <ele>927.7</ele>
        <time>2021-05-28T10:08:10.756Z</time>
      </trkpt>
      <trkpt lat="44.18367" lon="5.72368">
        <ele>939.2</ele>
        <time>2021-05-28T10:09:29.443Z</time>
      </trkpt>
      <trkpt lat="44.18389" lon="5.7236">
        <ele>943.5</ele>
        <time>2021-05-28T10:09:50.993Z</time>
      </trkpt>
      <trkpt lat="44.18424" lon="5.72276">
        <ele>951.7</ele>
        <time>2021-05-28T10:10:44.797Z</time>
      </trkpt>
      <trkpt lat="44.18484" lon="5.72185">
        <ele>963.3</ele>
        <time>2021-05-28T10:12:05.805Z</time>
      </trkpt>
      <trkpt lat="44.18476" lon="5.72083">
        <ele>968.1</ele>
        <time>2021-05-28T10:12:40.929Z</time>
      </trkpt>
      <trkpt lat="44.1847" lon="5.7198">
        <ele>975.2</ele>
        <time>2021-05-28T10:13:26.429Z</time>
      </trkpt>
      <trkpt lat="44.18504" lon="5.71855">
        <ele>992.4</ele>
        <time>2021-05-28T10:14:57.301Z</time>
      </trkpt>
      <trkpt lat="44.18534" lon="5.71727">
        <ele>1013.8</ele>
        <time>2021-05-28T10:16:28.834Z</time>
      </trkpt>
      <trkpt lat="44.18482" lon="5.71559">
        <ele>1022.4</ele>
        <time>2021-05-28T10:17:31.610Z</time>
      </trkpt>
      <trkpt lat="44.18411" lon="5.71422">
        <ele>1030.9</ele>
        <time>2021-05-28T10:18:31.606Z</time>
      </trkpt>
      <trkpt lat="44.18365" lon="5.71345">
        <ele>1042.8</ele>
        <time>2021-05-28T10:19:39.728Z</time>
      </trkpt>
      <trkpt lat="44.18405" lon="5.71302">
        <ele>1051.3</ele>
        <time>2021-05-28T10:20:27.602Z</time>
      </trkpt>
      <trkpt lat="44.18537" lon="5.71349">
        <ele>1069.3</ele>
        <time>2021-05-28T10:22:34.339Z</time>
      </trkpt>
      <trkpt lat="44.18491" lon="5.71285">
        <ele>1067.7</ele>
        <time>2021-05-28T10:22:43.464Z</time>
      </trkpt>
      <trkpt lat="44.18467" lon="5.71255">
        <ele>1069.1</ele>
        <time>2021-05-28T10:22:56.618Z</time>
      </trkpt>
      <trkpt lat="44.18464" lon="5.71186">
        <ele>1081.4</ele>
        <time>2021-05-28T10:23:43.605Z</time>
      </trkpt>
      <trkpt lat="44.18433" lon="5.71083">
        <ele>1090.5</ele>
        <time>2021-05-28T10:24:42.619Z</time>
      </trkpt>
      <trkpt lat="44.18457" lon="5.7101">
        <ele>1089</ele>
        <time>2021-05-28T10:24:50.581Z</time>
      </trkpt>
      <trkpt lat="44.18491" lon="5.70877">
        <ele>1080</ele>
        <time>2021-05-28T10:25:01.156Z</time>
      </trkpt>
      <trkpt lat="44.18516" lon="5.70774">
        <ele>1082.6</ele>
        <time>2021-05-28T10:25:28.745Z</time>
      </trkpt>
      <trkpt lat="44.185" lon="5.70641">
        <ele>1069.6</ele>
        <time>2021-05-28T10:25:38.845Z</time>
      </trkpt>
      <trkpt lat="44.18488" lon="5.70564">
        <ele>1068.1</ele>
        <time>2021-05-28T10:25:46.615Z</time>
      </trkpt>
      <trkpt lat="44.185" lon="5.70461">
        <ele>1069.7</ele>
        <time>2021-05-28T10:26:09.482Z</time>
      </trkpt>
      <trkpt lat="44.18571" lon="5.70401">
        <ele>1067.7</ele>
        <time>2021-05-28T10:26:21.211Z</time>
      </trkpt>
      <trkpt lat="44.18608" lon="5.70349">
        <ele>1062.9</ele>
        <time>2021-05-28T10:26:26.697Z</time>
      </trkpt>
      <trkpt lat="44.18648" lon="5.70289">
        <ele>1067</ele>
        <time>2021-05-28T10:26:55.702Z</time>
      </trkpt>
      <trkpt lat="44.18624" lon="5.70199">
        <ele>1054.3</ele>
        <time>2021-05-28T10:27:02.894Z</time>
      </trkpt>
      <trkpt lat="44.18633" lon="5.70156">
        <ele>1057.9</ele>
        <time>2021-05-28T10:27:26.159Z</time>
      </trkpt>
      <trkpt lat="44.18605" lon="5.70066">
        <ele>1046.8</ele>
        <time>2021-05-28T10:27:33.507Z</time>
      </trkpt>
      <trkpt lat="44.18577" lon="5.69984">
        <ele>1038.4</ele>
        <time>2021-05-28T10:27:40.309Z</time>
      </trkpt>
      <trkpt lat="44.18596" lon="5.69898">
        <ele>1041.2</ele>
        <time>2021-05-28T10:28:06.627Z</time>
      </trkpt>
      <trkpt lat="44.18617" lon="5.69813">
        <ele>1047</ele>
        <time>2021-05-28T10:28:44.157Z</time>
      </trkpt>
      <trkpt lat="44.18611" lon="5.69667">
        <ele>1046.9</ele>
        <time>2021-05-28T10:29:09.556Z</time>
      </trkpt>
      <trkpt lat="44.18614" lon="5.69551">
        <ele>1048.2</ele>
        <time>2021-05-28T10:29:33.426Z</time>
      </trkpt>
      <trkpt lat="44.18634" lon="5.69459">
        <ele>1053.9</ele>
        <time>2021-05-28T10:30:11.121Z</time>
      </trkpt>
      <trkpt lat="44.18627" lon="5.69432">
        <ele>1048.5</ele>
        <time>2021-05-28T10:30:13.271Z</time>
      </trkpt>
      <trkpt lat="44.18626" lon="5.69405">
        <ele>1046</ele>
        <time>2021-05-28T10:30:15.296Z</time>
      </trkpt>
      <trkpt lat="44.18636" lon="5.69351">
        <ele>1045</ele>
        <time>2021-05-28T10:30:20.889Z</time>
      </trkpt>
      <trkpt lat="44.18636" lon="5.6929">
        <ele>1044.8</ele>
        <time>2021-05-28T10:30:30.934Z</time>
      </trkpt>
      <trkpt lat="44.1863" lon="5.69265">
        <ele>1045.3</ele>
        <time>2021-05-28T10:30:37.065Z</time>
      </trkpt>
      <trkpt lat="44.18613" lon="5.69254">
        <ele>1045.3</ele>
        <time>2021-05-28T10:30:41.671Z</time>
      </trkpt>
      <trkpt lat="44.18588" lon="5.69248">
        <ele>1045.7</ele>
        <time>2021-05-28T10:30:48.957Z</time>
      </trkpt>
      <trkpt lat="44.18554" lon="5.69269">
        <ele>1046.9</ele>
        <time>2021-05-28T10:31:01.930Z</time>
      </trkpt>
      <trkpt lat="44.1854" lon="5.69289">
        <ele>1044.2</ele>
        <time>2021-05-28T10:31:04.023Z</time>
      </trkpt>
      <trkpt lat="44.18496" lon="5.693">
        <ele>1049.3</ele>
        <time>2021-05-28T10:31:37.137Z</time>
      </trkpt>
      <trkpt lat="44.18478" lon="5.69291">
        <ele>1062.1</ele>
        <time>2021-05-28T10:31:55.263Z</time>
      </trkpt>
      <trkpt lat="44.18446" lon="5.69344">
        <ele>1055.7</ele>
        <time>2021-05-28T10:32:00.452Z</time>
      </trkpt>
      <trkpt lat="44.18439" lon="5.69368">
        <ele>1051.9</ele>
        <time>2021-05-28T10:32:02.392Z</time>
      </trkpt>
      <trkpt lat="44.18425" lon="5.69382">
        <ele>1053.6</ele>
        <time>2021-05-28T10:32:13.262Z</time>
      </trkpt>
      <trkpt lat="44.1839" lon="5.69402">
        <ele>1054.1</ele>
        <time>2021-05-28T10:32:23.838Z</time>
      </trkpt>
      <trkpt lat="44.18334" lon="5.69411">
        <ele>1054.5</ele>
        <time>2021-05-28T10:32:38.654Z</time>
      </trkpt>
      <trkpt lat="44.18295" lon="5.69404">
        <ele>1055.8</ele>
        <time>2021-05-28T10:32:52.514Z</time>
      </trkpt>
      <trkpt lat="44.18278" lon="5.69395">
        <ele>1059.3</ele>
        <time>2021-05-28T10:33:09.751Z</time>
      </trkpt>
      <trkpt lat="44.18264" lon="5.69379">
        <ele>1066.2</ele>
        <time>2021-05-28T10:33:26.908Z</time>
      </trkpt>
      <trkpt lat="44.18247" lon="5.6937">
        <ele>1067.6</ele>
        <time>2021-05-28T10:33:36.401Z</time>
      </trkpt>
      <trkpt lat="44.18229" lon="5.69371">
        <ele>1059.1</ele>
        <time>2021-05-28T10:33:38.282Z</time>
      </trkpt>
      <trkpt lat="44.18211" lon="5.69378">
        <ele>1049.4</ele>
        <time>2021-05-28T10:33:40.234Z</time>
      </trkpt>
      <trkpt lat="44.18206" lon="5.69351">
        <ele>1053.4</ele>
        <time>2021-05-28T10:33:59.190Z</time>
      </trkpt>
      <trkpt lat="44.18192" lon="5.69367">
        <ele>1043.3</ele>
        <time>2021-05-28T10:34:01.080Z</time>
      </trkpt>
      <trkpt lat="44.18176" lon="5.69413">
        <ele>1033.7</ele>
        <time>2021-05-28T10:34:04.910Z</time>
      </trkpt>
      <trkpt lat="44.1816" lon="5.69427">
        <ele>1025.8</ele>
        <time>2021-05-28T10:34:06.882Z</time>
      </trkpt>
      <trkpt lat="44.18139" lon="5.69469">
        <ele>1008.9</ele>
        <time>2021-05-28T10:34:10.717Z</time>
      </trkpt>
      <trkpt lat="44.18133" lon="5.69493">
        <ele>1003.9</ele>
        <time>2021-05-28T10:34:12.621Z</time>
      </trkpt>
      <trkpt lat="44.18129" lon="5.69466">
        <ele>1006.1</ele>
        <time>2021-05-28T10:34:26.815Z</time>
      </trkpt>
      <trkpt lat="44.18136" lon="5.69439">
        <ele>1012.2</ele>
        <time>2021-05-28T10:34:46.332Z</time>
      </trkpt>
      <trkpt lat="44.18142" lon="5.69359">
        <ele>1015.1</ele>
        <time>2021-05-28T10:35:11.163Z</time>
      </trkpt>
      <trkpt lat="44.1814" lon="5.69334">
        <ele>1012.2</ele>
        <time>2021-05-28T10:35:13.047Z</time>
      </trkpt>
      <trkpt lat="44.18119" lon="5.69291">
        <ele>998.2</ele>
        <time>2021-05-28T10:35:16.944Z</time>
      </trkpt>
      <trkpt lat="44.1811" lon="5.69238">
        <ele>992.2</ele>
        <time>2021-05-28T10:35:21.024Z</time>
      </trkpt>
      <trkpt lat="44.18106" lon="5.69156">
        <ele>987.2</ele>
        <time>2021-05-28T10:35:27.180Z</time>
      </trkpt>
      <trkpt lat="44.18123" lon="5.69028">
        <ele>995.9</ele>
        <time>2021-05-28T10:36:23.128Z</time>
      </trkpt>
      <trkpt lat="44.18111" lon="5.69009">
        <ele>986.6</ele>
        <time>2021-05-28T10:36:25.025Z</time>
      </trkpt>
      <trkpt lat="44.18104" lon="5.68983">
        <ele>980.4</ele>
        <time>2021-05-28T10:36:27.105Z</time>
      </trkpt>
      <trkpt lat="44.18113" lon="5.6893">
        <ele>983.4</ele>
        <time>2021-05-28T10:36:47.465Z</time>
      </trkpt>
      <trkpt lat="44.1811" lon="5.68875">
        <ele>979.4</ele>
        <time>2021-05-28T10:36:51.596Z</time>
      </trkpt>
      <trkpt lat="44.18102" lon="5.68825">
        <ele>972.8</ele>
        <time>2021-05-28T10:36:55.434Z</time>
      </trkpt>
      <trkpt lat="44.18082" lon="5.68748">
        <ele>957</ele>
        <time>2021-05-28T10:37:01.568Z</time>
      </trkpt>
      <trkpt lat="44.18072" lon="5.68727">
        <ele>949.2</ele>
        <time>2021-05-28T10:37:03.456Z</time>
      </trkpt>
      <trkpt lat="44.18066" lon="5.68643">
        <ele>938.2</ele>
        <time>2021-05-28T10:37:09.779Z</time>
      </trkpt>
      <trkpt lat="44.18068" lon="5.68618">
        <ele>937.2</ele>
        <time>2021-05-28T10:37:11.666Z</time>
      </trkpt>
      <trkpt lat="44.18064" lon="5.68561">
        <ele>929.8</ele>
        <time>2021-05-28T10:37:15.956Z</time>
      </trkpt>
      <trkpt lat="44.18072" lon="5.6851">
        <ele>929.5</ele>
        <time>2021-05-28T10:37:22.405Z</time>
      </trkpt>
      <trkpt lat="44.18058" lon="5.68494">
        <ele>921.8</ele>
        <time>2021-05-28T10:37:24.296Z</time>
      </trkpt>
      <trkpt lat="44.18041" lon="5.68484">
        <ele>913.9</ele>
        <time>2021-05-28T10:37:26.223Z</time>
      </trkpt>
      <trkpt lat="44.18016" lon="5.68445">
        <ele>903.6</ele>
        <time>2021-05-28T10:37:30.141Z</time>
      </trkpt>
      <trkpt lat="44.18006" lon="5.68392">
        <ele>900.1</ele>
        <time>2021-05-28T10:37:34.246Z</time>
      </trkpt>
      <trkpt lat="44.17947" lon="5.68317">
        <ele>875.4</ele>
        <time>2021-05-28T10:37:42.585Z</time>
      </trkpt>
      <trkpt lat="44.17951" lon="5.68287">
        <ele>873.3</ele>
        <time>2021-05-28T10:37:44.870Z</time>
      </trkpt>
      <trkpt lat="44.17971" lon="5.68242">
        <ele>874.9</ele>
        <time>2021-05-28T10:38:00.067Z</time>
      </trkpt>
      <trkpt lat="44.1798" lon="5.68192">
        <ele>872.1</ele>
        <time>2021-05-28T10:38:03.928Z</time>
      </trkpt>
      <trkpt lat="44.17955" lon="5.68152">
        <ele>859.8</ele>
        <time>2021-05-28T10:38:07.902Z</time>
      </trkpt>
      <trkpt lat="44.17949" lon="5.68127">
        <ele>856.6</ele>
        <time>2021-05-28T10:38:09.877Z</time>
      </trkpt>
      <trkpt lat="44.17949" lon="5.68127">
        <ele>856.6</ele>
        <time>2021-05-28T10:38:09.877Z</time>
      </trkpt>
      <trkpt lat="44.17923" lon="5.68163">
        <ele>849.1</ele>
        <time>2021-05-28T10:38:13.704Z</time>
      </trkpt>
      <trkpt lat="44.17876" lon="5.68212">
        <ele>841.9</ele>
        <time>2021-05-28T10:38:19.833Z</time>
      </trkpt>
      <trkpt lat="44.17847" lon="5.68249">
        <ele>834.3</ele>
        <time>2021-05-28T10:38:23.939Z</time>
      </trkpt>
      <trkpt lat="44.17813" lon="5.68208">
        <ele>823.7</ele>
        <time>2021-05-28T10:38:28.634Z</time>
      </trkpt>
      <trkpt lat="44.17805" lon="5.68158">
        <ele>820.3</ele>
        <time>2021-05-28T10:38:32.471Z</time>
      </trkpt>
      <trkpt lat="44.17839" lon="5.68141">
        <ele>827.7</ele>
        <time>2021-05-28T10:39:06.709Z</time>
      </trkpt>
      <trkpt lat="44.17876" lon="5.68126">
        <ele>834.1</ele>
        <time>2021-05-28T10:39:43.233Z</time>
      </trkpt>
      <trkpt lat="44.17882" lon="5.68073">
        <ele>829.9</ele>
        <time>2021-05-28T10:39:47.252Z</time>
      </trkpt>
      <trkpt lat="44.17868" lon="5.68023">
        <ele>821.4</ele>
        <time>2021-05-28T10:39:51.272Z</time>
      </trkpt>
      <trkpt lat="44.17879" lon="5.67987">
        <ele>825.4</ele>
        <time>2021-05-28T10:40:17.874Z</time>
      </trkpt>
      <trkpt lat="44.17867" lon="5.67922">
        <ele>818</ele>
        <time>2021-05-28T10:40:22.901Z</time>
      </trkpt>
      <trkpt lat="44.17867" lon="5.67839">
        <ele>816.8</ele>
        <time>2021-05-28T10:40:31.698Z</time>
      </trkpt>
      <trkpt lat="44.1785" lon="5.67761">
        <ele>811</ele>
        <time>2021-05-28T10:40:37.804Z</time>
      </trkpt>
      <trkpt lat="44.17813" lon="5.67706">
        <ele>800</ele>
        <time>2021-05-28T10:40:43.453Z</time>
      </trkpt>
      <trkpt lat="44.17803" lon="5.67648">
        <ele>795.5</ele>
        <time>2021-05-28T10:40:47.921Z</time>
      </trkpt>
      <trkpt lat="44.1783" lon="5.67553">
        <ele>790.2</ele>
        <time>2021-05-28T10:40:55.576Z</time>
      </trkpt>
      <trkpt lat="44.17847" lon="5.67437">
        <ele>780.6</ele>
        <time>2021-05-28T10:41:04.444Z</time>
      </trkpt>
      <trkpt lat="44.1783" lon="5.67397">
        <ele>770.8</ele>
        <time>2021-05-28T10:41:07.927Z</time>
      </trkpt>
      <trkpt lat="44.17834" lon="5.67339">
        <ele>768.6</ele>
        <time>2021-05-28T10:41:12.401Z</time>
      </trkpt>
      <trkpt lat="44.17823" lon="5.67309">
        <ele>763.8</ele>
        <time>2021-05-28T10:41:14.925Z</time>
      </trkpt>
      <trkpt lat="44.17839" lon="5.67251">
        <ele>764.8</ele>
        <time>2021-05-28T10:41:28.710Z</time>
      </trkpt>
      <trkpt lat="44.1782" lon="5.67204">
        <ele>758.4</ele>
        <time>2021-05-28T10:41:32.752Z</time>
      </trkpt>
      <trkpt lat="44.17834" lon="5.6709">
        <ele>762.2</ele>
        <time>2021-05-28T10:42:07.443Z</time>
      </trkpt>
      <trkpt lat="44.17808" lon="5.66995">
        <ele>752.6</ele>
        <time>2021-05-28T10:42:15.059Z</time>
      </trkpt>
      <trkpt lat="44.17822" lon="5.66942">
        <ele>758.6</ele>
        <time>2021-05-28T10:42:53.455Z</time>
      </trkpt>
      <trkpt lat="44.17794" lon="5.66907">
        <ele>747.8</ele>
        <time>2021-05-28T10:42:57.383Z</time>
      </trkpt>
      <trkpt lat="44.17786" lon="5.66772">
        <ele>739.3</ele>
        <time>2021-05-28T10:43:07.529Z</time>
      </trkpt>
      <trkpt lat="44.178" lon="5.66738">
        <ele>743.5</ele>
        <time>2021-05-28T10:43:34.181Z</time>
      </trkpt>
      <trkpt lat="44.17763" lon="5.66616">
        <ele>734.9</ele>
        <time>2021-05-28T10:43:44.103Z</time>
      </trkpt>
      <trkpt lat="44.1776" lon="5.66568">
        <ele>735</ele>
        <time>2021-05-28T10:43:52.827Z</time>
      </trkpt>
      <trkpt lat="44.17768" lon="5.66489">
        <ele>737.7</ele>
        <time>2021-05-28T10:44:16.969Z</time>
      </trkpt>
      <trkpt lat="44.1779" lon="5.66429">
        <ele>740.9</ele>
        <time>2021-05-28T10:44:40.204Z</time>
      </trkpt>
      <trkpt lat="44.17802" lon="5.66401">
        <ele>743.6</ele>
        <time>2021-05-28T10:44:57.797Z</time>
      </trkpt>
      <trkpt lat="44.17777" lon="5.66367">
        <ele>738.9</ele>
        <time>2021-05-28T10:45:01.445Z</time>
      </trkpt>
      <trkpt lat="44.17779" lon="5.66337">
        <ele>740.4</ele>
        <time>2021-05-28T10:45:12.083Z</time>
      </trkpt>
      <trkpt lat="44.17779" lon="5.66272">
        <ele>745.5</ele>
        <time>2021-05-28T10:45:44.879Z</time>
      </trkpt>
      <trkpt lat="44.17777" lon="5.66208">
        <ele>751.1</ele>
        <time>2021-05-28T10:46:22.201Z</time>
      </trkpt>
      <trkpt lat="44.1775" lon="5.66186">
        <ele>746.5</ele>
        <time>2021-05-28T10:46:25.467Z</time>
      </trkpt>
      <trkpt lat="44.17723" lon="5.66135">
        <ele>746.5</ele>
        <time>2021-05-28T10:46:36.640Z</time>
      </trkpt>
      <trkpt lat="44.17699" lon="5.66053">
        <ele>746.9</ele>
        <time>2021-05-28T10:46:53.204Z</time>
      </trkpt>
      <trkpt lat="44.17686" lon="5.65976">
        <ele>748.9</ele>
        <time>2021-05-28T10:47:13.795Z</time>
      </trkpt>
      <trkpt lat="44.17656" lon="5.65916">
        <ele>744</ele>
        <time>2021-05-28T10:47:19.274Z</time>
      </trkpt>
      <trkpt lat="44.17614" lon="5.65856">
        <ele>739.7</ele>
        <time>2021-05-28T10:47:25.555Z</time>
      </trkpt>
      <trkpt lat="44.17616" lon="5.65757">
        <ele>747.5</ele>
        <time>2021-05-28T10:48:15.747Z</time>
      </trkpt>
      <trkpt lat="44.1761" lon="5.65652">
        <ele>748.1</ele>
        <time>2021-05-28T10:48:35.768Z</time>
      </trkpt>
      <trkpt lat="44.17583" lon="5.65485">
        <ele>746</ele>
        <time>2021-05-28T10:48:54.585Z</time>
      </trkpt>
      <trkpt lat="44.17585" lon="5.65431">
        <ele>746.5</ele>
        <time>2021-05-28T10:49:05.391Z</time>
      </trkpt>
      <trkpt lat="44.17577" lon="5.65376">
        <ele>744.6</ele>
        <time>2021-05-28T10:49:09.909Z</time>
      </trkpt>
      <trkpt lat="44.17588" lon="5.65286">
        <ele>747.5</ele>
        <time>2021-05-28T10:49:36.984Z</time>
      </trkpt>
      <trkpt lat="44.17592" lon="5.65207">
        <ele>747.2</ele>
        <time>2021-05-28T10:49:49.897Z</time>
      </trkpt>
      <trkpt lat="44.17611" lon="5.65157">
        <ele>751.5</ele>
        <time>2021-05-28T10:50:17.430Z</time>
      </trkpt>
      <trkpt lat="44.17603" lon="5.65093">
        <ele>748</ele>
        <time>2021-05-28T10:50:22.297Z</time>
      </trkpt>
      <trkpt lat="44.17583" lon="5.65029">
        <ele>741.3</ele>
        <time>2021-05-28T10:50:27.526Z</time>
      </trkpt>
      <trkpt lat="44.17609" lon="5.64949">
        <ele>743.3</ele>
        <time>2021-05-28T10:50:49.355Z</time>
      </trkpt>
      <trkpt lat="44.17626" lon="5.649">
        <ele>744</ele>
        <time>2021-05-28T10:51:00.834Z</time>
      </trkpt>
      <trkpt lat="44.17617" lon="5.64816">
        <ele>739.6</ele>
        <time>2021-05-28T10:51:07.196Z</time>
      </trkpt>
      <trkpt lat="44.17625" lon="5.64709">
        <ele>742</ele>
        <time>2021-05-28T10:51:33.712Z</time>
      </trkpt>
      <trkpt lat="44.17592" lon="5.64576">
        <ele>737.8</ele>
        <time>2021-05-28T10:51:45.634Z</time>
      </trkpt>
      <trkpt lat="44.17565" lon="5.64507">
        <ele>736.4</ele>
        <time>2021-05-28T10:51:53.532Z</time>
      </trkpt>
      <trkpt lat="44.17557" lon="5.64385">
        <ele>738.2</ele>
        <time>2021-05-28T10:52:20.112Z</time>
      </trkpt>
      <trkpt lat="44.17546" lon="5.64252">
        <ele>737.6</ele>
        <time>2021-05-28T10:52:41.647Z</time>
      </trkpt>
      <trkpt lat="44.17534" lon="5.64117">
        <ele>738</ele>
        <time>2021-05-28T10:53:06.559Z</time>
      </trkpt>
      <trkpt lat="44.17534" lon="5.64052">
        <ele>739.7</ele>
        <time>2021-05-28T10:53:23.761Z</time>
      </trkpt>
      <trkpt lat="44.17546" lon="5.63921">
        <ele>747</ele>
        <time>2021-05-28T10:54:13.238Z</time>
      </trkpt>
      <trkpt lat="44.17562" lon="5.63846">
        <ele>749.5</ele>
        <time>2021-05-28T10:54:36.521Z</time>
      </trkpt>
      <trkpt lat="44.17589" lon="5.63814">
        <ele>748.8</ele>
        <time>2021-05-28T10:54:41.782Z</time>
      </trkpt>
      <trkpt lat="44.17616" lon="5.63752">
        <ele>750.6</ele>
        <time>2021-05-28T10:55:00.498Z</time>
      </trkpt>
      <trkpt lat="44.17654" lon="5.63703">
        <ele>751.6</ele>
        <time>2021-05-28T10:55:15.953Z</time>
      </trkpt>
      <trkpt lat="44.17668" lon="5.63634">
        <ele>751.9</ele>
        <time>2021-05-28T10:55:29.305Z</time>
      </trkpt>
      <trkpt lat="44.17659" lon="5.63542">
        <ele>756.3</ele>
        <time>2021-05-28T10:56:01.288Z</time>
      </trkpt>
      <trkpt lat="44.17643" lon="5.63458">
        <ele>764.6</ele>
        <time>2021-05-28T10:57:00.136Z</time>
      </trkpt>
      <trkpt lat="44.17669" lon="5.63391">
        <ele>759.3</ele>
        <time>2021-05-28T10:57:05.842Z</time>
      </trkpt>
      <trkpt lat="44.17679" lon="5.63325">
        <ele>763.5</ele>
        <time>2021-05-28T10:57:33.240Z</time>
      </trkpt>
      <trkpt lat="44.17734" lon="5.63278">
        <ele>768.1</ele>
        <time>2021-05-28T10:58:05.457Z</time>
      </trkpt>
      <trkpt lat="44.17768" lon="5.63245">
        <ele>771.5</ele>
        <time>2021-05-28T10:58:27.994Z</time>
      </trkpt>
      <trkpt lat="44.17783" lon="5.63318">
        <ele>773.1</ele>
        <time>2021-05-28T10:58:46.305Z</time>
      </trkpt>
      <trkpt lat="44.17833" lon="5.63385">
        <ele>775.7</ele>
        <time>2021-05-28T10:59:12.261Z</time>
      </trkpt>
      <trkpt lat="44.17825" lon="5.63293">
        <ele>780.2</ele>
        <time>2021-05-28T10:59:44.568Z</time>
      </trkpt>
      <trkpt lat="44.1788" lon="5.63291">
        <ele>786.8</ele>
        <time>2021-05-28T11:00:28.219Z</time>
      </trkpt>
      <trkpt lat="44.17933" lon="5.63312">
        <ele>793.9</ele>
        <time>2021-05-28T11:01:17.207Z</time>
      </trkpt>
      <trkpt lat="44.17979" lon="5.63329">
        <ele>800.3</ele>
        <time>2021-05-28T11:02:02.315Z</time>
      </trkpt>
      <trkpt lat="44.18006" lon="5.63338">
        <ele>804.1</ele>
        <time>2021-05-28T11:02:28.629Z</time>
      </trkpt>
      <trkpt lat="44.18046" lon="5.63336">
        <ele>809.4</ele>
        <time>2021-05-28T11:03:06.018Z</time>
      </trkpt>
      <trkpt lat="44.18046" lon="5.63385">
        <ele>814.5</ele>
        <time>2021-05-28T11:03:39.327Z</time>
      </trkpt>
      <trkpt lat="44.18088" lon="5.63409">
        <ele>824.6</ele>
        <time>2021-05-28T11:04:22.351Z</time>
      </trkpt>
      <trkpt lat="44.18116" lon="5.63451">
        <ele>833.7</ele>
        <time>2021-05-28T11:05:01.332Z</time>
      </trkpt>
      <trkpt lat="44.18083" lon="5.63488">
        <ele>834.3</ele>
        <time>2021-05-28T11:05:13.290Z</time>
      </trkpt>
    </trkseg>
  </trk>
</gpx>